| time (UTC) | temp F | wind direction | speed MPH | gust MPH | rain 1hr in | rain 24hr in | rain mn in | humidity % | barometer mb |
| 20260506215825 | 51 | 244 | 5.0 | 11.0 | 0.00 | 0.00 | 0.00 | 43 | 1012.5 |
| 20260506215703 | 51 | 243 | 4.0 | 11.0 | 0.00 | 0.00 | 0.00 | 43 | 1012.4 |
| 20260506215603 | 51 | 239 | 4.0 | 11.0 | 0.00 | 0.00 | 0.00 | 43 | 1012.4 |
| 20260506215503 | 51 | 241 | 4.0 | 11.0 | 0.00 | 0.00 | 0.00 | 43 | 1012.4 |
| 20260506215424 | 51 | 240 | 4.0 | 11.0 | 0.00 | 0.00 | 0.00 | 43 | 1012.4 |
| 20260506215306 | 52 | 239 | 3.0 | 11.0 | 0.00 | 0.00 | 0.00 | 43 | 1012.4 |
| 20260506215204 | 52 | 235 | 3.0 | 11.0 | 0.00 | 0.00 | 0.00 | 43 | 1012.4 |
| 20260506215103 | 52 | 233 | 3.0 | 10.0 | 0.00 | 0.00 | 0.00 | 42 | 1012.4 |
| 20260506215004 | 52 | 232 | 3.0 | 7.0 | 0.00 | 0.00 | 0.00 | 42 | 1012.5 |
| 20260506214903 | 53 | 234 | 3.0 | 8.0 | 0.00 | 0.00 | 0.00 | 42 | 1012.5 |
| 20260506214804 | 53 | 238 | 3.0 | 8.0 | 0.00 | 0.00 | 0.00 | 42 | 1012.4 |
| 20260506214704 | 53 | 240 | 3.0 | 8.0 | 0.00 | 0.00 | 0.00 | 43 | 1012.4 |
| 20260506214604 | 52 | 244 | 4.0 | 8.0 | 0.00 | 0.00 | 0.00 | 43 | 1012.4 |
| 20260506214503 | 52 | 246 | 4.0 | 9.0 | 0.00 | 0.00 | 0.00 | 43 | 1012.4 |
| 20260506214404 | 52 | 251 | 4.0 | 9.0 | 0.00 | 0.00 | 0.00 | 43 | 1012.4 |
| 20260506214304 | 52 | 254 | 5.0 | 9.0 | 0.00 | 0.00 | 0.00 | 43 | 1012.4 |
| 20260506214204 | 52 | 255 | 5.0 | 10.0 | 0.00 | 0.00 | 0.00 | 44 | 1012.3 |
| 20260506214104 | 52 | 257 | 5.0 | 10.0 | 0.00 | 0.00 | 0.00 | 43 | 1012.3 |
| 20260506214004 | 52 | 257 | 5.0 | 10.0 | 0.00 | 0.00 | 0.00 | 43 | 1012.3 |
| 20260506213904 | 52 | 256 | 5.0 | 10.0 | 0.00 | 0.00 | 0.00 | 42 | 1012.3 |
| 20260506213804 | 52 | 254 | 5.0 | 10.0 | 0.00 | 0.00 | 0.00 | 42 | 1012.3 |
| 20260506213703 | 52 | 254 | 5.0 | 10.0 | 0.00 | 0.00 | 0.00 | 42 | 1012.4 |
| 20260506213603 | 52 | 254 | 4.0 | 10.0 | 0.00 | 0.00 | 0.00 | 43 | 1012.4 |
| 20260506213503 | 52 | 254 | 5.0 | 10.0 | 0.00 | 0.00 | 0.00 | 42 | 1012.4 |
| 20260506213404 | 52 | 251 | 5.0 | 10.0 | 0.00 | 0.00 | 0.00 | 42 | 1012.4 |
| 20260506213304 | 52 | 251 | 5.0 | 11.0 | 0.00 | 0.00 | 0.00 | 43 | 1012.4 |
| 20260506213203 | 52 | 251 | 5.0 | 11.0 | 0.00 | 0.00 | 0.00 | 43 | 1012.3 |
| 20260506213104 | 52 | 249 | 5.0 | 11.0 | 0.00 | 0.00 | 0.00 | 42 | 1012.3 |
| 20260506213004 | 52 | 250 | 5.0 | 11.0 | 0.00 | 0.00 | 0.00 | 42 | 1012.3 |
| 20260506212904 | 52 | 253 | 5.0 | 11.0 | 0.00 | 0.00 | 0.00 | 42 | 1012.3 |
| 20260506212803 | 52 | 255 | 5.0 | 11.0 | 0.00 | 0.00 | 0.00 | 42 | 1012.3 |
| 20260506212725 | 52 | 255 | 5.0 | 11.0 | 0.00 | 0.00 | 0.00 | 42 | 1012.3 |
| 20260506212625 | 52 | 253 | 5.0 | 11.0 | 0.00 | 0.00 | 0.00 | 43 | 1012.3 |
| 20260506212504 | 52 | 252 | 5.0 | 11.0 | 0.00 | 0.00 | 0.00 | 42 | 1012.3 |
| 20260506212403 | 53 | 252 | 5.0 | 11.0 | 0.00 | 0.00 | 0.00 | 42 | 1012.4 |
| 20260506212306 | 53 | 251 | 5.0 | 11.0 | 0.00 | 0.00 | 0.00 | 42 | 1012.4 |
| 20260506212204 | 53 | 251 | 5.0 | 11.0 | 0.00 | 0.00 | 0.00 | 42 | 1012.4 |
| 20260506212104 | 53 | 250 | 4.0 | 11.0 | 0.00 | 0.00 | 0.00 | 42 | 1012.3 |
| 20260506212003 | 53 | 248 | 4.0 | 11.0 | 0.00 | 0.00 | 0.00 | 42 | 1012.3 |
| 20260506211903 | 53 | 242 | 4.0 | 11.0 | 0.00 | 0.00 | 0.00 | 42 | 1012.4 |
| 20260506211803 | 53 | 240 | 4.0 | 11.0 | 0.00 | 0.00 | 0.00 | 41 | 1012.4 |
| 20260506211703 | 53 | 241 | 4.0 | 11.0 | 0.00 | 0.00 | 0.00 | 41 | 1012.4 |
| 20260506211604 | 54 | 239 | 4.0 | 11.0 | 0.00 | 0.00 | 0.00 | 42 | 1012.4 |
| 20260506211504 | 53 | 242 | 4.0 | 11.0 | 0.00 | 0.00 | 0.00 | 41 | 1012.4 |
| 20260506211403 | 54 | 242 | 4.0 | 11.0 | 0.00 | 0.00 | 0.00 | 41 | 1012.4 |
| 20260506211304 | 54 | 242 | 4.0 | 11.0 | 0.00 | 0.00 | 0.00 | 41 | 1012.4 |
| 20260506211203 | 54 | 241 | 4.0 | 11.0 | 0.00 | 0.00 | 0.00 | 41 | 1012.4 |
| 20260506211103 | 53 | 240 | 4.0 | 11.0 | 0.00 | 0.00 | 0.00 | 41 | 1012.4 |
| 20260506211004 | 53 | 241 | 4.0 | 11.0 | 0.00 | 0.00 | 0.00 | 41 | 1012.4 |
| 20260506210903 | 53 | 241 | 4.0 | 11.0 | 0.00 | 0.00 | 0.00 | 41 | 1012.5 |
| 20260506210803 | 53 | 244 | 4.0 | 11.0 | 0.00 | 0.00 | 0.00 | 41 | 1012.5 |
| 20260506210724 | 54 | 242 | 4.0 | 11.0 | 0.00 | 0.00 | 0.00 | 41 | 1012.5 |
| 20260506210603 | 53 | 242 | 4.0 | 9.0 | 0.00 | 0.00 | 0.00 | 42 | 1012.4 |
| 20260506210503 | 53 | 245 | 4.0 | 9.0 | 0.00 | 0.00 | 0.00 | 41 | 1012.4 |
| 20260506210404 | 53 | 246 | 4.0 | 11.0 | 0.00 | 0.00 | 0.00 | 41 | 1012.4 |
| 20260506210325 | 53 | 249 | 4.0 | 11.0 | 0.00 | 0.00 | 0.00 | 41 | 1012.4 |
| 20260506210224 | 53 | 247 | 4.0 | 11.0 | 0.00 | 0.00 | 0.00 | 41 | 1012.5 |
| 20260506210124 | 53 | 248 | 4.0 | 11.0 | 0.00 | 0.00 | 0.00 | 41 | 1012.4 |
| 20260506210004 | 53 | 249 | 5.0 | 11.0 | 0.00 | 0.00 | 0.00 | 42 | 1012.4 |
| 20260506205904 | 53 | 247 | 4.0 | 11.0 | 0.00 | 0.00 | 0.00 | 41 | 1012.5 |
| 20260506205803 | 53 | 246 | 4.0 | 11.0 | 0.00 | 0.00 | 0.00 | 42 | 1012.5 |
| 20260506205724 | 53 | 248 | 4.0 | 11.0 | 0.00 | 0.00 | 0.00 | 43 | 1012.5 |
| 20260506205603 | 53 | 251 | 5.0 | 11.0 | 0.00 | 0.00 | 0.00 | 42 | 1012.5 |
| 20260506205525 | 53 | 250 | 5.0 | 11.0 | 0.00 | 0.00 | 0.00 | 42 | 1012.5 |
| 20260506205404 | 53 | 249 | 4.0 | 10.0 | 0.00 | 0.00 | 0.00 | 41 | 1012.5 |
| 20260506205306 | 53 | 247 | 4.0 | 10.0 | 0.00 | 0.00 | 0.00 | 41 | 1012.6 |
| 20260506205203 | 53 | 247 | 4.0 | 10.0 | 0.00 | 0.00 | 0.00 | 41 | 1012.6 |
| 20260506205124 | 53 | 249 | 4.0 | 10.0 | 0.00 | 0.00 | 0.00 | 42 | 1012.4 |
| 20260506205004 | 53 | 250 | 5.0 | 12.0 | 0.00 | 0.00 | 0.00 | 42 | 1012.5 |
| 20260506204904 | 53 | 254 | 5.0 | 12.0 | 0.00 | 0.00 | 0.00 | 42 | 1012.5 |
| 20260506204803 | 53 | 255 | 5.0 | 12.0 | 0.00 | 0.00 | 0.00 | 41 | 1012.5 |
| 20260506204703 | 53 | 251 | 5.0 | 12.0 | 0.00 | 0.00 | 0.00 | 41 | 1012.5 |
| 20260506204603 | 53 | 249 | 5.0 | 12.0 | 0.00 | 0.00 | 0.00 | 42 | 1012.5 |
| 20260506204524 | 53 | 246 | 5.0 | 12.0 | 0.00 | 0.00 | 0.00 | 42 | 1012.5 |
| 20260506204424 | 52 | 241 | 5.0 | 12.0 | 0.00 | 0.00 | 0.00 | 42 | 1012.5 |
| 20260506204303 | 52 | 239 | 5.0 | 12.0 | 0.00 | 0.00 | 0.00 | 41 | 1012.5 |
| 20260506204203 | 52 | 242 | 5.0 | 12.0 | 0.00 | 0.00 | 0.00 | 41 | 1012.5 |
| 20260506204103 | 52 | 239 | 4.0 | 12.0 | 0.00 | 0.00 | 0.00 | 40 | 1012.6 |
| 20260506204004 | 53 | 238 | 4.0 | 10.0 | 0.00 | 0.00 | 0.00 | 40 | 1012.6 |
| 20260506203904 | 53 | 237 | 4.0 | 10.0 | 0.00 | 0.00 | 0.00 | 40 | 1012.6 |
| 20260506203803 | 54 | 234 | 4.0 | 8.0 | 0.00 | 0.00 | 0.00 | 40 | 1012.5 |
| 20260506203703 | 53 | 238 | 4.0 | 8.0 | 0.00 | 0.00 | 0.00 | 40 | 1012.6 |
| 20260506203603 | 54 | 236 | 4.0 | 8.0 | 0.00 | 0.00 | 0.00 | 40 | 1012.6 |
| 20260506203504 | 53 | 244 | 4.0 | 9.0 | 0.00 | 0.00 | 0.00 | 42 | 1012.6 |
| 20260506203403 | 53 | 249 | 5.0 | 12.0 | 0.00 | 0.00 | 0.00 | 42 | 1012.6 |
| 20260506203303 | 53 | 250 | 4.0 | 12.0 | 0.00 | 0.00 | 0.00 | 42 | 1012.7 |
| 20260506203203 | 53 | 247 | 5.0 | 12.0 | 0.00 | 0.00 | 0.00 | 42 | 1012.7 |
| 20260506203103 | 53 | 246 | 5.0 | 12.0 | 0.00 | 0.00 | 0.00 | 40 | 1012.7 |
| 20260506203003 | 53 | 246 | 5.0 | 12.0 | 0.00 | 0.00 | 0.00 | 41 | 1012.7 |
| 20260506202903 | 53 | 244 | 5.0 | 12.0 | 0.00 | 0.00 | 0.00 | 42 | 1012.7 |
| 20260506202803 | 53 | 243 | 5.0 | 12.0 | 0.00 | 0.00 | 0.00 | 42 | 1012.7 |
| 20260506202703 | 52 | 240 | 5.0 | 12.0 | 0.00 | 0.00 | 0.00 | 41 | 1012.7 |
| 20260506202603 | 52 | 241 | 5.0 | 12.0 | 0.00 | 0.00 | 0.00 | 41 | 1012.7 |
| 20260506202504 | 53 | 240 | 4.0 | 12.0 | 0.00 | 0.00 | 0.00 | 40 | 1012.7 |
| 20260506202404 | 53 | 236 | 4.0 | 10.0 | 0.00 | 0.00 | 0.00 | 41 | 1012.7 |
| 20260506202306 | 53 | 235 | 4.0 | 10.0 | 0.00 | 0.00 | 0.00 | 41 | 1012.7 |
| 20260506202203 | 53 | 234 | 4.0 | 10.0 | 0.00 | 0.00 | 0.00 | 40 | 1012.7 |
| 20260506202124 | 53 | 232 | 4.0 | 10.0 | 0.00 | 0.00 | 0.00 | 42 | 1012.7 |
| 20260506202004 | 53 | 235 | 5.0 | 10.0 | 0.00 | 0.00 | 0.00 | 41 | 1012.8 |
| 20260506201903 | 53 | 238 | 5.0 | 10.0 | 0.00 | 0.00 | 0.00 | 41 | 1012.7 |
| 20260506201803 | 53 | 242 | 5.0 | 10.0 | 0.00 | 0.00 | 0.00 | 42 | 1012.7 |
| 20260506201703 | 52 | 247 | 5.0 | 10.0 | 0.00 | 0.00 | 0.00 | 41 | 1012.7 |
| 20260506201603 | 53 | 244 | 5.0 | 10.0 | 0.00 | 0.00 | 0.00 | 40 | 1012.7 |
| 20260506201504 | 53 | 242 | 5.0 | 10.0 | 0.00 | 0.00 | 0.00 | 42 | 1012.7 |
| 20260506201424 | 53 | 241 | 5.0 | 10.0 | 0.00 | 0.00 | 0.00 | 42 | 1012.7 |
| 20260506201303 | 53 | 242 | 5.0 | 10.0 | 0.00 | 0.00 | 0.00 | 41 | 1012.8 |
| 20260506201224 | 53 | 244 | 5.0 | 13.0 | 0.00 | 0.00 | 0.00 | 42 | 1012.8 |
| 20260506201104 | 52 | 248 | 5.0 | 13.0 | 0.00 | 0.00 | 0.00 | 42 | 1012.8 |
| 20260506201003 | 52 | 248 | 5.0 | 13.0 | 0.00 | 0.00 | 0.00 | 41 | 1012.9 |
| 20260506200903 | 52 | 247 | 5.0 | 13.0 | 0.00 | 0.00 | 0.00 | 42 | 1012.8 |
| 20260506200803 | 53 | 243 | 5.0 | 13.0 | 0.00 | 0.00 | 0.00 | 41 | 1012.8 |
| 20260506200724 | 53 | 241 | 5.0 | 13.0 | 0.00 | 0.00 | 0.00 | 41 | 1012.9 |
| 20260506200603 | 52 | 245 | 5.0 | 13.0 | 0.00 | 0.00 | 0.00 | 42 | 1012.8 |
| 20260506200525 | 52 | 247 | 5.0 | 13.0 | 0.00 | 0.00 | 0.00 | 42 | 1012.8 |
| 20260506200403 | 52 | 249 | 5.0 | 13.0 | 0.00 | 0.00 | 0.00 | 41 | 1012.8 |
| 20260506200303 | 52 | 249 | 6.0 | 13.0 | 0.00 | 0.00 | 0.00 | 42 | 1012.8 |
| 20260506200224 | 52 | 250 | 6.0 | 14.0 | 0.00 | 0.00 | 0.00 | 42 | 1012.8 |
| 20260506200104 | 52 | 250 | 6.0 | 14.0 | 0.00 | 0.00 | 0.00 | 40 | 1012.8 |
| 20260506200025 | 52 | 248 | 6.0 | 14.0 | 0.00 | 0.00 | 0.00 | 41 | 1012.8 |
| 20260506195924 | 52 | 247 | 5.0 | 14.0 | 0.00 | 0.00 | 0.00 | 41 | 1012.8 |
| 20260506195804 | 52 | 250 | 5.0 | 14.0 | 0.00 | 0.00 | 0.00 | 41 | 1012.8 |
| 20260506195703 | 52 | 251 | 5.0 | 14.0 | 0.00 | 0.00 | 0.00 | 40 | 1012.9 |
| 20260506195624 | 53 | 250 | 5.0 | 14.0 | 0.00 | 0.00 | 0.00 | 40 | 1012.9 |
| 20260506195524 | 53 | 250 | 5.0 | 14.0 | 0.00 | 0.00 | 0.00 | 40 | 1012.9 |
| 20260506195403 | 53 | 252 | 5.0 | 14.0 | 0.00 | 0.00 | 0.00 | 40 | 1012.8 |
| 20260506195305 | 53 | 252 | 5.0 | 14.0 | 0.00 | 0.00 | 0.00 | 40 | 1012.8 |
| 20260506195203 | 53 | 249 | 5.0 | 11.0 | 0.00 | 0.00 | 0.00 | 41 | 1012.8 |
| 20260506195103 | 53 | 250 | 5.0 | 11.0 | 0.00 | 0.00 | 0.00 | 41 | 1012.9 |
| 20260506195024 | 53 | 252 | 5.0 | 11.0 | 0.00 | 0.00 | 0.00 | 41 | 1012.9 |
| 20260506194903 | 53 | 252 | 5.0 | 11.0 | 0.00 | 0.00 | 0.00 | 42 | 1012.9 |
| 20260506194804 | 52 | 250 | 5.0 | 11.0 | 0.00 | 0.00 | 0.00 | 41 | 1012.9 |
| 20260506194703 | 52 | 250 | 4.0 | 11.0 | 0.00 | 0.00 | 0.00 | 40 | 1012.9 |
| 20260506194625 | 52 | 252 | 4.0 | 11.0 | 0.00 | 0.00 | 0.00 | 39 | 1012.8 |
| 20260506194503 | 53 | 253 | 4.0 | 12.0 | 0.00 | 0.00 | 0.00 | 40 | 1012.8 |
| 20260506194407 | 53 | 251 | 4.0 | 12.0 | 0.00 | 0.00 | 0.00 | 40 | 1012.9 |
| 20260506194307 | 53 | 248 | 4.0 | 12.0 | 0.00 | 0.00 | 0.00 | 39 | 1012.8 |
| 20260506194206 | 53 | 250 | 4.0 | 12.0 | 0.00 | 0.00 | 0.00 | 40 | 1012.8 |
| 20260506194106 | 53 | 251 | 4.0 | 12.0 | 0.00 | 0.00 | 0.00 | 40 | 1012.8 |
| 20260506194006 | 53 | 256 | 4.0 | 12.0 | 0.00 | 0.00 | 0.00 | 40 | 1012.8 |
| 20260506193907 | 53 | 257 | 4.0 | 12.0 | 0.00 | 0.00 | 0.00 | 41 | 1012.7 |
| 20260506193807 | 53 | 261 | 5.0 | 12.0 | 0.00 | 0.00 | 0.00 | 41 | 1012.8 |
| 20260506193706 | 52 | 263 | 5.0 | 12.0 | 0.00 | 0.00 | 0.00 | 41 | 1012.8 |
| 20260506193606 | 53 | 264 | 5.0 | 12.0 | 0.00 | 0.00 | 0.00 | 41 | 1012.8 |
| 20260506193506 | 53 | 264 | 5.0 | 11.0 | 0.00 | 0.00 | 0.00 | 41 | 1012.8 |
| 20260506193407 | 52 | 262 | 5.0 | 11.0 | 0.00 | 0.00 | 0.00 | 41 | 1012.8 |
| 20260506193307 | 52 | 263 | 5.0 | 11.0 | 0.00 | 0.00 | 0.00 | 42 | 1012.8 |
| 20260506193206 | 52 | 263 | 5.0 | 11.0 | 0.00 | 0.00 | 0.00 | 41 | 1012.8 |
| 20260506193106 | 52 | 262 | 4.0 | 11.0 | 0.00 | 0.00 | 0.00 | 41 | 1012.7 |
| 20260506193006 | 52 | 257 | 4.0 | 11.0 | 0.00 | 0.00 | 0.00 | 41 | 1012.8 |
| 20260506192906 | 53 | 247 | 4.0 | 11.0 | 0.00 | 0.00 | 0.00 | 40 | 1012.8 |
| 20260506192806 | 53 | 239 | 5.0 | 11.0 | 0.00 | 0.00 | 0.00 | 41 | 1012.8 |
| 20260506192706 | 53 | 237 | 5.0 | 11.0 | 0.00 | 0.00 | 0.00 | 41 | 1012.8 |
| 20260506192606 | 53 | 232 | 5.0 | 11.0 | 0.00 | 0.00 | 0.00 | 40 | 1012.8 |
| 20260506192507 | 53 | 233 | 4.0 | 11.0 | 0.00 | 0.00 | 0.00 | 41 | 1012.8 |
| 20260506192428 | 53 | 233 | 4.0 | 10.0 | 0.00 | 0.00 | 0.00 | 42 | 1012.8 |
| 20260506192328 | 53 | 232 | 4.0 | 10.0 | 0.00 | 0.00 | 0.00 | 42 | 1012.9 |
| 20260506192206 | 52 | 229 | 5.0 | 10.0 | 0.00 | 0.00 | 0.00 | 41 | 1012.9 |
| 20260506192107 | 52 | 232 | 5.0 | 10.0 | 0.00 | 0.00 | 0.00 | 41 | 1012.9 |
| 20260506192007 | 52 | 234 | 5.0 | 10.0 | 0.00 | 0.00 | 0.00 | 40 | 1012.9 |
| 20260506191906 | 52 | 241 | 5.0 | 10.0 | 0.00 | 0.00 | 0.00 | 41 | 1012.9 |
| 20260506191806 | 52 | 244 | 4.0 | 10.0 | 0.00 | 0.00 | 0.00 | 41 | 1012.9 |
| 20260506191706 | 53 | 244 | 5.0 | 11.0 | 0.00 | 0.00 | 0.00 | 42 | 1012.9 |
| 20260506191606 | 52 | 246 | 4.0 | 11.0 | 0.00 | 0.00 | 0.00 | 41 | 1012.9 |
| 20260506191507 | 53 | 243 | 4.0 | 11.0 | 0.00 | 0.00 | 0.00 | 40 | 1012.9 |
| 20260506191428 | 53 | 243 | 4.0 | 11.0 | 0.00 | 0.00 | 0.00 | 40 | 1012.9 |
| 20260506191306 | 53 | 246 | 4.0 | 11.0 | 0.00 | 0.00 | 0.00 | 39 | 1012.9 |
| 20260506191207 | 53 | 250 | 4.0 | 11.0 | 0.00 | 0.00 | 0.00 | 38 | 1012.8 |
| 20260506191106 | 53 | 252 | 4.0 | 11.0 | 0.00 | 0.00 | 0.00 | 40 | 1012.8 |
| 20260506191006 | 53 | 254 | 4.0 | 11.0 | 0.00 | 0.00 | 0.00 | 41 | 1012.8 |
| 20260506190906 | 53 | 255 | 4.0 | 11.0 | 0.00 | 0.00 | 0.00 | 42 | 1012.8 |
| 20260506190806 | 53 | 255 | 4.0 | 11.0 | 0.00 | 0.00 | 0.00 | 40 | 1012.7 |
| 20260506190706 | 53 | 258 | 4.0 | 11.0 | 0.00 | 0.00 | 0.00 | 42 | 1012.8 |
| 20260506190628 | 53 | 258 | 4.0 | 11.0 | 0.00 | 0.00 | 0.00 | 41 | 1012.8 |
| 20260506190506 | 53 | 256 | 4.0 | 11.0 | 0.00 | 0.00 | 0.00 | 41 | 1012.8 |
| 20260506190406 | 53 | 257 | 4.0 | 11.0 | 0.00 | 0.00 | 0.00 | 40 | 1012.8 |
| 20260506190327 | 53 | 259 | 4.0 | 11.0 | 0.00 | 0.00 | 0.00 | 40 | 1012.8 |
| 20260506190206 | 53 | 258 | 4.0 | 11.0 | 0.00 | 0.00 | 0.00 | 39 | 1012.8 |
| 20260506190128 | 54 | 259 | 4.0 | 11.0 | 0.00 | 0.00 | 0.00 | 40 | 1012.8 |
| 20260506190007 | 54 | 256 | 4.0 | 11.0 | 0.00 | 0.00 | 0.00 | 41 | 1012.7 |
| 20260506185906 | 53 | 259 | 4.0 | 11.0 | 0.00 | 0.00 | 0.00 | 41 | 1012.7 |
| 20260506185806 | 53 | 258 | 4.0 | 11.0 | 0.00 | 0.00 | 0.00 | 39 | 1012.7 |
| 20260506185706 | 53 | 255 | 4.0 | 11.0 | 0.00 | 0.00 | 0.00 | 39 | 1012.8 |
| 20260506185607 | 53 | 256 | 4.0 | 11.0 | 0.00 | 0.00 | 0.00 | 39 | 1012.8 |
| 20260506185507 | 53 | 259 | 4.0 | 11.0 | 0.00 | 0.00 | 0.00 | 41 | 1012.8 |
| 20260506185407 | 53 | 258 | 4.0 | 11.0 | 0.00 | 0.00 | 0.00 | 40 | 1012.8 |
| 20260506185307 | 53 | 257 | 4.0 | 11.0 | 0.00 | 0.00 | 0.00 | 40 | 1012.8 |
| 20260506185206 | 53 | 259 | 4.0 | 11.0 | 0.00 | 0.00 | 0.00 | 42 | 1012.8 |
| 20260506185107 | 53 | 259 | 4.0 | 11.0 | 0.00 | 0.00 | 0.00 | 39 | 1012.8 |
| 20260506185006 | 53 | 262 | 4.0 | 13.0 | 0.00 | 0.00 | 0.00 | 41 | 1012.8 |
| 20260506184907 | 53 | 256 | 4.0 | 13.0 | 0.00 | 0.00 | 0.00 | 41 | 1012.7 |
| 20260506184806 | 53 | 255 | 4.0 | 13.0 | 0.00 | 0.00 | 0.00 | 43 | 1012.7 |
| 20260506184706 | 52 | 254 | 4.0 | 13.0 | 0.00 | 0.00 | 0.00 | 42 | 1012.8 |
| 20260506184606 | 52 | 255 | 4.0 | 13.0 | 0.00 | 0.00 | 0.00 | 42 | 1012.8 |
| 20260506184506 | 52 | 256 | 4.0 | 13.0 | 0.00 | 0.00 | 0.00 | 41 | 1012.8 |
| 20260506184407 | 52 | 256 | 4.0 | 13.0 | 0.00 | 0.00 | 0.00 | 41 | 1012.8 |
| 20260506184307 | 52 | 256 | 4.0 | 13.0 | 0.00 | 0.00 | 0.00 | 40 | 1012.8 |
| 20260506184207 | 52 | 255 | 4.0 | 13.0 | 0.00 | 0.00 | 0.00 | 40 | 1012.7 |
| 20260506184106 | 52 | 252 | 4.0 | 13.0 | 0.00 | 0.00 | 0.00 | 41 | 1012.7 |
| 20260506184027 | 52 | 252 | 4.0 | 12.0 | 0.00 | 0.00 | 0.00 | 41 | 1012.7 |
| 20260506183906 | 52 | 253 | 4.0 | 12.0 | 0.00 | 0.00 | 0.00 | 41 | 1012.8 |
| 20260506183806 | 52 | 258 | 4.0 | 12.0 | 0.00 | 0.00 | 0.00 | 42 | 1012.8 |
| 20260506183707 | 52 | 262 | 5.0 | 12.0 | 0.00 | 0.00 | 0.00 | 42 | 1012.8 |
| 20260506183607 | 52 | 260 | 5.0 | 12.0 | 0.00 | 0.00 | 0.00 | 44 | 1012.8 |
| 20260506183506 | 52 | 258 | 5.0 | 14.0 | 0.00 | 0.00 | 0.00 | 43 | 1012.8 |
| 20260506183406 | 52 | 258 | 6.0 | 14.0 | 0.00 | 0.00 | 0.00 | 42 | 1012.8 |
| 20260506183306 | 52 | 258 | 6.0 | 14.0 | 0.00 | 0.00 | 0.00 | 42 | 1012.8 |
| 20260506183207 | 52 | 257 | 5.0 | 14.0 | 0.00 | 0.00 | 0.00 | 43 | 1012.8 |
| 20260506183106 | 52 | 255 | 5.0 | 14.0 | 0.00 | 0.00 | 0.00 | 42 | 1012.7 |
| 20260506183007 | 52 | 255 | 5.0 | 14.0 | 0.00 | 0.00 | 0.00 | 43 | 1012.7 |
| 20260506182906 | 52 | 253 | 5.0 | 14.0 | 0.00 | 0.00 | 0.00 | 41 | 1012.7 |
| 20260506182827 | 52 | 252 | 5.0 | 14.0 | 0.00 | 0.00 | 0.00 | 41 | 1012.7 |
| 20260506182706 | 52 | 246 | 5.0 | 14.0 | 0.00 | 0.00 | 0.00 | 41 | 1012.7 |
| 20260506182607 | 52 | 247 | 5.0 | 14.0 | 0.00 | 0.00 | 0.00 | 43 | 1012.7 |
| 20260506182507 | 52 | 248 | 4.0 | 11.0 | 0.00 | 0.00 | 0.00 | 42 | 1012.7 |
| 20260506182406 | 52 | 244 | 4.0 | 11.0 | 0.00 | 0.00 | 0.00 | 42 | 1012.7 |
| 20260506182307 | 52 | 242 | 4.0 | 11.0 | 0.00 | 0.00 | 0.00 | 42 | 1012.6 |
| 20260506182206 | 52 | 242 | 5.0 | 12.0 | 0.00 | 0.00 | 0.00 | 42 | 1012.6 |
| 20260506182106 | 52 | 244 | 5.0 | 13.0 | 0.00 | 0.00 | 0.00 | 43 | 1012.8 |
| 20260506182007 | 52 | 246 | 5.0 | 13.0 | 0.00 | 0.00 | 0.00 | 43 | 1012.8 |
| 20260506181906 | 52 | 248 | 5.0 | 13.0 | 0.00 | 0.00 | 0.00 | 44 | 1012.8 |
| 20260506181827 | 52 | 249 | 5.0 | 13.0 | 0.00 | 0.00 | 0.00 | 43 | 1012.8 |
| 20260506181706 | 52 | 249 | 5.0 | 13.0 | 0.00 | 0.00 | 0.00 | 42 | 1012.8 |
| 20260506181607 | 52 | 247 | 4.0 | 13.0 | 0.00 | 0.00 | 0.00 | 42 | 1012.8 |
| 20260506181506 | 52 | 246 | 4.0 | 13.0 | 0.00 | 0.00 | 0.00 | 42 | 1012.8 |
| 20260506181406 | 52 | 249 | 5.0 | 13.0 | 0.00 | 0.00 | 0.00 | 42 | 1012.8 |
| 20260506181327 | 52 | 251 | 5.0 | 13.0 | 0.00 | 0.00 | 0.00 | 42 | 1012.8 |
| 20260506181228 | 52 | 251 | 4.0 | 13.0 | 0.00 | 0.00 | 0.00 | 42 | 1012.8 |
| 20260506181107 | 52 | 252 | 4.0 | 11.0 | 0.00 | 0.00 | 0.00 | 42 | 1012.8 |
| 20260506181007 | 52 | 248 | 4.0 | 10.0 | 0.00 | 0.00 | 0.00 | 42 | 1012.8 |
| 20260506180906 | 53 | 250 | 4.0 | 10.0 | 0.00 | 0.00 | 0.00 | 44 | 1012.8 |
| 20260506180806 | 52 | 249 | 4.0 | 9.0 | 0.00 | 0.00 | 0.00 | 43 | 1012.8 |
| 20260506180706 | 52 | 247 | 4.0 | 9.0 | 0.00 | 0.00 | 0.00 | 43 | 1012.8 |
| 20260506180606 | 52 | 246 | 4.0 | 9.0 | 0.00 | 0.00 | 0.00 | 42 | 1012.8 |
| 20260506180507 | 52 | 247 | 4.0 | 9.0 | 0.00 | 0.00 | 0.00 | 41 | 1012.9 |
| 20260506180406 | 52 | 246 | 4.0 | 9.0 | 0.00 | 0.00 | 0.00 | 42 | 1012.9 |
| 20260506180306 | 52 | 247 | 4.0 | 10.0 | 0.00 | 0.00 | 0.00 | 42 | 1012.9 |
| 20260506180206 | 52 | 245 | 4.0 | 11.0 | 0.00 | 0.00 | 0.00 | 41 | 1012.9 |
| 20260506180106 | 52 | 241 | 4.0 | 11.0 | 0.00 | 0.00 | 0.00 | 42 | 1012.9 |
| 20260506180007 | 52 | 245 | 4.0 | 11.0 | 0.00 | 0.00 | 0.00 | 42 | 1012.9 |
| 20260506175906 | 52 | 247 | 4.0 | 11.0 | 0.00 | 0.00 | 0.00 | 42 | 1012.9 |
| 20260506175806 | 52 | 247 | 4.0 | 11.0 | 0.00 | 0.00 | 0.00 | 41 | 1013.0 |
| 20260506175706 | 52 | 254 | 4.0 | 11.0 | 0.00 | 0.00 | 0.00 | 41 | 1013.0 |
| 20260506175607 | 52 | 256 | 4.0 | 11.0 | 0.00 | 0.00 | 0.00 | 41 | 1013.0 |
| 20260506175527 | 52 | 257 | 4.0 | 11.0 | 0.00 | 0.00 | 0.00 | 41 | 1013.0 |
| 20260506175406 | 52 | 256 | 4.0 | 11.0 | 0.00 | 0.00 | 0.00 | 41 | 1013.0 |
| 20260506175328 | 52 | 255 | 4.0 | 11.0 | 0.00 | 0.00 | 0.00 | 41 | 1013.1 |
| 20260506175206 | 52 | 255 | 5.0 | 10.0 | 0.00 | 0.00 | 0.00 | 41 | 1013.1 |
| 20260506175127 | 52 | 257 | 5.0 | 10.0 | 0.00 | 0.00 | 0.00 | 42 | 1013.1 |
| 20260506175006 | 52 | 260 | 5.0 | 10.0 | 0.00 | 0.00 | 0.00 | 41 | 1013.1 |
| 20260506174906 | 52 | 260 | 5.0 | 10.0 | 0.00 | 0.00 | 0.00 | 40 | 1013.1 |
| 20260506174806 | 52 | 260 | 5.0 | 10.0 | 0.00 | 0.00 | 0.00 | 43 | 1013.1 |
| 20260506174706 | 52 | 258 | 5.0 | 10.0 | 0.00 | 0.00 | 0.00 | 45 | 1013.1 |
| 20260506174606 | 52 | 256 | 5.0 | 11.0 | 0.00 | 0.00 | 0.00 | 44 | 1013.1 |
| 20260506174506 | 51 | 256 | 5.0 | 11.0 | 0.00 | 0.00 | 0.00 | 43 | 1013.1 |
| 20260506174406 | 51 | 257 | 5.0 | 11.0 | 0.00 | 0.00 | 0.00 | 44 | 1013.1 |
| 20260506174327 | 51 | 257 | 5.0 | 11.0 | 0.00 | 0.00 | 0.00 | 43 | 1013.1 |
| 20260506174206 | 51 | 256 | 6.0 | 12.0 | 0.00 | 0.00 | 0.00 | 43 | 1013.2 |
| 20260506174106 | 51 | 256 | 6.0 | 12.0 | 0.00 | 0.00 | 0.00 | 43 | 1013.2 |
| 20260506174006 | 51 | 255 | 5.0 | 12.0 | 0.00 | 0.00 | 0.00 | 43 | 1013.2 |
| 20260506173906 | 51 | 253 | 5.0 | 12.0 | 0.00 | 0.00 | 0.00 | 42 | 1013.2 |
| 20260506173806 | 50 | 252 | 5.0 | 12.0 | 0.00 | 0.00 | 0.00 | 43 | 1013.2 |
| 20260506173706 | 50 | 253 | 6.0 | 12.0 | 0.00 | 0.00 | 0.00 | 42 | 1013.2 |
| 20260506173606 | 51 | 254 | 5.0 | 12.0 | 0.00 | 0.00 | 0.00 | 43 | 1013.2 |
| 20260506173506 | 51 | 256 | 6.0 | 12.0 | 0.00 | 0.00 | 0.00 | 43 | 1013.2 |
| 20260506173406 | 51 | 255 | 6.0 | 12.0 | 0.00 | 0.00 | 0.00 | 43 | 1013.2 |
| 20260506173306 | 51 | 255 | 5.0 | 12.0 | 0.00 | 0.00 | 0.00 | 42 | 1013.2 |
| 20260506173206 | 51 | 256 | 5.0 | 12.0 | 0.00 | 0.00 | 0.00 | 42 | 1013.2 |
| 20260506173127 | 51 | 255 | 5.0 | 12.0 | 0.00 | 0.00 | 0.00 | 43 | 1013.2 |
| 20260506173006 | 51 | 256 | 5.0 | 12.0 | 0.00 | 0.00 | 0.00 | 43 | 1013.3 |
| 20260506172927 | 51 | 256 | 5.0 | 12.0 | 0.00 | 0.00 | 0.00 | 43 | 1013.3 |
| 20260506172806 | 51 | 254 | 5.0 | 12.0 | 0.00 | 0.00 | 0.00 | 43 | 1013.3 |
| 20260506172706 | 51 | 253 | 5.0 | 12.0 | 0.00 | 0.00 | 0.00 | 44 | 1013.3 |
| 20260506172606 | 51 | 252 | 5.0 | 12.0 | 0.00 | 0.00 | 0.00 | 43 | 1013.3 |
| 20260506172506 | 51 | 250 | 5.0 | 12.0 | 0.00 | 0.00 | 0.00 | 42 | 1013.3 |
| 20260506172406 | 51 | 249 | 5.0 | 12.0 | 0.00 | 0.00 | 0.00 | 42 | 1013.3 |
| 20260506172307 | 51 | 250 | 5.0 | 12.0 | 0.00 | 0.00 | 0.00 | 41 | 1013.3 |
| 20260506172206 | 51 | 248 | 5.0 | 12.0 | 0.00 | 0.00 | 0.00 | 42 | 1013.3 |
| 20260506172107 | 51 | 246 | 5.0 | 12.0 | 0.00 | 0.00 | 0.00 | 43 | 1013.3 |
| 20260506172007 | 51 | 244 | 5.0 | 12.0 | 0.00 | 0.00 | 0.00 | 42 | 1013.3 |
| 20260506171906 | 51 | 243 | 5.0 | 12.0 | 0.00 | 0.00 | 0.00 | 42 | 1013.4 |
| 20260506171827 | 51 | 244 | 5.0 | 12.0 | 0.00 | 0.00 | 0.00 | 42 | 1013.4 |
| 20260506171727 | 51 | 242 | 5.0 | 12.0 | 0.00 | 0.00 | 0.00 | 42 | 1013.4 |
| 20260506171627 | 51 | 241 | 5.0 | 12.0 | 0.00 | 0.00 | 0.00 | 43 | 1013.4 |
| 20260506171527 | 51 | 240 | 4.0 | 12.0 | 0.00 | 0.00 | 0.00 | 43 | 1013.3 |
| 20260506171406 | 51 | 240 | 3.0 | 12.0 | 0.00 | 0.00 | 0.00 | 42 | 1013.3 |
| 20260506171306 | 51 | 237 | 4.0 | 12.0 | 0.00 | 0.00 | 0.00 | 39 | 1013.3 |
| 20260506171206 | 51 | 239 | 4.0 | 12.0 | 0.00 | 0.00 | 0.00 | 40 | 1013.4 |
| 20260506171106 | 51 | 240 | 4.0 | 12.0 | 0.00 | 0.00 | 0.00 | 42 | 1013.4 |
| 20260506171006 | 51 | 241 | 4.0 | 12.0 | 0.00 | 0.00 | 0.00 | 42 | 1013.4 |
| 20260506170906 | 52 | 245 | 4.0 | 12.0 | 0.00 | 0.00 | 0.00 | 42 | 1013.4 |
| 20260506170806 | 52 | 246 | 4.0 | 12.0 | 0.00 | 0.00 | 0.00 | 41 | 1013.4 |
| 20260506170706 | 52 | 246 | 4.0 | 12.0 | 0.00 | 0.00 | 0.00 | 41 | 1013.4 |
| 20260506170606 | 51 | 245 | 4.0 | 12.0 | 0.00 | 0.00 | 0.00 | 41 | 1013.3 |
| 20260506170506 | 51 | 245 | 4.0 | 12.0 | 0.00 | 0.00 | 0.00 | 42 | 1013.3 |
| 20260506170406 | 51 | 247 | 4.0 | 12.0 | 0.00 | 0.00 | 0.00 | 41 | 1013.4 |
| 20260506170306 | 51 | 248 | 4.0 | 12.0 | 0.00 | 0.00 | 0.00 | 41 | 1013.3 |
| 20260506170206 | 51 | 250 | 4.0 | 12.0 | 0.00 | 0.00 | 0.00 | 40 | 1013.3 |
| 20260506170106 | 52 | 251 | 4.0 | 11.0 | 0.00 | 0.00 | 0.00 | 42 | 1013.4 |
| 20260506170006 | 52 | 254 | 4.0 | 11.0 | 0.00 | 0.00 | 0.00 | 41 | 1013.4 |
| 20260506165906 | 52 | 251 | 3.0 | 10.0 | 0.00 | 0.00 | 0.00 | 40 | 1013.3 |
| 20260506165827 | 52 | 251 | 3.0 | 10.0 | 0.00 | 0.00 | 0.00 | 41 | 1013.3 |
| 20260506165706 | 52 | 257 | 4.0 | 10.0 | 0.00 | 0.00 | 0.00 | 42 | 1013.4 |
| 20260506165606 | 51 | 260 | 4.0 | 10.0 | 0.00 | 0.00 | 0.00 | 44 | 1013.4 |
| 20260506165506 | 51 | 267 | 4.0 | 10.0 | 0.00 | 0.00 | 0.00 | 45 | 1013.4 |
| 20260506165406 | 51 | 268 | 5.0 | 10.0 | 0.00 | 0.00 | 0.00 | 44 | 1013.4 |
| 20260506165307 | 51 | 265 | 5.0 | 11.0 | 0.00 | 0.00 | 0.00 | 45 | 1013.4 |
| 20260506165227 | 51 | 263 | 5.0 | 11.0 | 0.00 | 0.00 | 0.00 | 44 | 1013.4 |
| 20260506165128 | 50 | 264 | 5.0 | 11.0 | 0.00 | 0.00 | 0.00 | 45 | 1013.4 |
| 20260506165006 | 50 | 263 | 5.0 | 11.0 | 0.00 | 0.00 | 0.00 | 46 | 1013.4 |
| 20260506164906 | 50 | 262 | 5.0 | 11.0 | 0.00 | 0.00 | 0.00 | 45 | 1013.5 |
| 20260506164806 | 50 | 263 | 5.0 | 11.0 | 0.00 | 0.00 | 0.00 | 45 | 1013.4 |
| 20260506164706 | 50 | 261 | 5.0 | 11.0 | 0.00 | 0.00 | 0.00 | 48 | 1013.4 |
| 20260506164606 | 50 | 259 | 6.0 | 11.0 | 0.00 | 0.00 | 0.00 | 46 | 1013.4 |
| 20260506164506 | 50 | 255 | 6.0 | 11.0 | 0.00 | 0.00 | 0.00 | 47 | 1013.4 |
| 20260506164427 | 50 | 253 | 6.0 | 11.0 | 0.00 | 0.00 | 0.00 | 46 | 1013.4 |
| 20260506164306 | 50 | 256 | 5.0 | 11.0 | 0.00 | 0.00 | 0.00 | 46 | 1013.4 |
| 20260506164227 | 49 | 257 | 5.0 | 11.0 | 0.00 | 0.00 | 0.00 | 46 | 1013.4 |
| 20260506164106 | 49 | 258 | 5.0 | 11.0 | 0.00 | 0.00 | 0.00 | 46 | 1013.4 |
| 20260506164027 | 49 | 258 | 5.0 | 11.0 | 0.00 | 0.00 | 0.00 | 44 | 1013.4 |
| 20260506163906 | 49 | 257 | 5.0 | 11.0 | 0.00 | 0.00 | 0.00 | 45 | 1013.3 |
| 20260506163806 | 49 | 257 | 5.0 | 11.0 | 0.00 | 0.00 | 0.00 | 45 | 1013.4 |
| 20260506163706 | 49 | 258 | 5.0 | 11.0 | 0.00 | 0.00 | 0.00 | 47 | 1013.4 |
| 20260506163606 | 50 | 260 | 5.0 | 11.0 | 0.00 | 0.00 | 0.00 | 46 | 1013.3 |
| 20260506163506 | 49 | 258 | 5.0 | 11.0 | 0.00 | 0.00 | 0.00 | 42 | 1013.4 |
| 20260506163427 | 49 | 258 | 5.0 | 11.0 | 0.00 | 0.00 | 0.00 | 38 | 1013.4 |
| 20260506163306 | 49 | 257 | 6.0 | 12.0 | 0.00 | 0.00 | 0.00 | 45 | 1013.2 |
| 20260506163206 | 49 | 256 | 5.0 | 12.0 | 0.00 | 0.00 | 0.00 | 44 | 1013.3 |
| 20260506163106 | 49 | 256 | 5.0 | 12.0 | 0.00 | 0.00 | 0.00 | 47 | 1013.3 |
| 20260506163006 | 50 | 253 | 5.0 | 12.0 | 0.00 | 0.00 | 0.00 | 46 | 1013.3 |
| 20260506162906 | 50 | 255 | 5.0 | 12.0 | 0.00 | 0.00 | 0.00 | 46 | 1013.3 |
| 20260506162827 | 50 | 255 | 5.0 | 12.0 | 0.00 | 0.00 | 0.00 | 44 | 1013.4 |
| 20260506162706 | 50 | 252 | 5.0 | 12.0 | 0.00 | 0.00 | 0.00 | 41 | 1013.3 |
| 20260506162607 | 50 | 249 | 5.0 | 12.0 | 0.00 | 0.00 | 0.00 | 49 | 1013.3 |
| 20260506162506 | 50 | 250 | 5.0 | 12.0 | 0.00 | 0.00 | 0.00 | 49 | 1013.3 |
| 20260506162406 | 50 | 250 | 5.0 | 12.0 | 0.00 | 0.00 | 0.00 | 45 | 1013.3 |
| 20260506162307 | 50 | 250 | 5.0 | 10.0 | 0.00 | 0.00 | 0.00 | 43 | 1013.2 |
| 20260506162227 | 50 | 249 | 5.0 | 10.0 | 0.00 | 0.00 | 0.00 | 46 | 1013.2 |
| 20260506162106 | 50 | 249 | 5.0 | 10.0 | 0.00 | 0.00 | 0.00 | 45 | 1013.2 |
| 20260506162006 | 50 | 252 | 5.0 | 10.0 | 0.00 | 0.00 | 0.00 | 45 | 1013.2 |
| 20260506161927 | 50 | 251 | 5.0 | 10.0 | 0.00 | 0.00 | 0.00 | 45 | 1013.2 |
| 20260506161806 | 50 | 256 | 4.0 | 10.0 | 0.00 | 0.00 | 0.00 | 48 | 1013.2 |
| 20260506161727 | 50 | 256 | 4.0 | 10.0 | 0.00 | 0.00 | 0.00 | 50 | 1013.2 |
| 20260506161607 | 50 | 260 | 4.0 | 10.0 | 0.00 | 0.00 | 0.00 | 50 | 1013.3 |
| 20260506161527 | 50 | 261 | 4.0 | 10.0 | 0.00 | 0.00 | 0.00 | 48 | 1013.2 |
| 20260506161406 | 50 | 260 | 5.0 | 10.0 | 0.00 | 0.00 | 0.00 | 45 | 1013.2 |
| 20260506161306 | 50 | 262 | 4.0 | 10.0 | 0.00 | 0.00 | 0.00 | 42 | 1013.2 |
| 20260506161206 | 50 | 264 | 5.0 | 10.0 | 0.00 | 0.00 | 0.00 | 42 | 1013.3 |
| 20260506161106 | 50 | 265 | 5.0 | 10.0 | 0.00 | 0.00 | 0.00 | 41 | 1013.3 |
| 20260506161006 | 49 | 262 | 5.0 | 10.0 | 0.00 | 0.00 | 0.00 | 42 | 1013.2 |
| 20260506160906 | 49 | 259 | 5.0 | 10.0 | 0.00 | 0.00 | 0.00 | 43 | 1013.2 |
| 20260506160806 | 49 | 255 | 6.0 | 10.0 | 0.00 | 0.00 | 0.00 | 42 | 1013.2 |
| 20260506160706 | 49 | 255 | 6.0 | 10.0 | 0.00 | 0.00 | 0.00 | 43 | 1013.3 |
| 20260506160606 | 49 | 253 | 5.0 | 10.0 | 0.00 | 0.00 | 0.00 | 44 | 1013.3 |
| 20260506160506 | 49 | 252 | 5.0 | 10.0 | 0.00 | 0.00 | 0.00 | 49 | 1013.3 |
| 20260506160406 | 49 | 252 | 5.0 | 13.0 | 0.00 | 0.00 | 0.00 | 49 | 1013.3 |
| 20260506160306 | 49 | 250 | 5.0 | 13.0 | 0.00 | 0.00 | 0.00 | 52 | 1013.3 |
| 20260506160206 | 49 | 249 | 5.0 | 13.0 | 0.00 | 0.00 | 0.00 | 51 | 1013.3 |
| 20260506160106 | 49 | 248 | 6.0 | 13.0 | 0.00 | 0.00 | 0.00 | 47 | 1013.3 |
| 20260506160006 | 49 | 248 | 6.0 | 13.0 | 0.00 | 0.00 | 0.00 | 47 | 1013.4 |
| 20260506155906 | 49 | 249 | 6.0 | 13.0 | 0.00 | 0.00 | 0.00 | 46 | 1013.3 |
| 20260506155806 | 49 | 248 | 5.0 | 13.0 | 0.00 | 0.00 | 0.00 | 48 | 1013.3 |
| 20260506155706 | 50 | 247 | 6.0 | 13.0 | 0.00 | 0.00 | 0.00 | 49 | 1013.4 |
| 20260506155606 | 50 | 249 | 6.0 | 13.0 | 0.00 | 0.00 | 0.00 | 49 | 1013.4 |
| 20260506155506 | 50 | 247 | 5.0 | 13.0 | 0.00 | 0.00 | 0.00 | 47 | 1013.4 |
| 20260506155406 | 50 | 248 | 5.0 | 12.0 | 0.00 | 0.00 | 0.00 | 44 | 1013.3 |
| 20260506155306 | 50 | 248 | 6.0 | 12.0 | 0.00 | 0.00 | 0.00 | 44 | 1013.3 |
| 20260506155206 | 49 | 246 | 6.0 | 12.0 | 0.00 | 0.00 | 0.00 | 44 | 1013.3 |
| 20260506155106 | 50 | 244 | 5.0 | 12.0 | 0.00 | 0.00 | 0.00 | 47 | 1013.3 |
| 20260506155006 | 50 | 246 | 5.0 | 10.0 | 0.00 | 0.00 | 0.00 | 47 | 1013.3 |
| 20260506154906 | 50 | 245 | 5.0 | 10.0 | 0.00 | 0.00 | 0.00 | 45 | 1013.3 |
| 20260506154806 | 50 | 245 | 5.0 | 10.0 | 0.00 | 0.00 | 0.00 | 44 | 1013.3 |
| 20260506154706 | 50 | 247 | 5.0 | 10.0 | 0.00 | 0.00 | 0.00 | 46 | 1013.3 |
| 20260506154606 | 50 | 248 | 5.0 | 10.0 | 0.00 | 0.00 | 0.00 | 48 | 1013.2 |
| 20260506154506 | 50 | 254 | 5.0 | 10.0 | 0.00 | 0.00 | 0.00 | 47 | 1013.2 |
| 20260506154427 | 50 | 256 | 5.0 | 10.0 | 0.00 | 0.00 | 0.00 | 47 | 1013.2 |
| 20260506154306 | 50 | 259 | 5.0 | 10.0 | 0.00 | 0.00 | 0.00 | 49 | 1013.3 |
| 20260506154206 | 50 | 261 | 5.0 | 10.0 | 0.00 | 0.00 | 0.00 | 43 | 1013.3 |
| 20260506154106 | 50 | 264 | 5.0 | 10.0 | 0.00 | 0.00 | 0.00 | 43 | 1013.3 |
| 20260506154027 | 50 | 263 | 5.0 | 10.0 | 0.00 | 0.00 | 0.00 | 47 | 1013.3 |
| 20260506153906 | 50 | 268 | 5.0 | 10.0 | 0.00 | 0.00 | 0.00 | 45 | 1013.2 |
| 20260506153806 | 50 | 269 | 5.0 | 10.0 | 0.00 | 0.00 | 0.00 | 44 | 1013.2 |
| 20260506153727 | 50 | 268 | 5.0 | 11.0 | 0.00 | 0.00 | 0.00 | 43 | 1013.2 |
| 20260506153606 | 50 | 266 | 4.0 | 11.0 | 0.00 | 0.00 | 0.00 | 41 | 1013.2 |
| 20260506153506 | 50 | 265 | 4.0 | 11.0 | 0.00 | 0.00 | 0.00 | 41 | 1013.2 |
| 20260506153406 | 50 | 263 | 4.0 | 11.0 | 0.00 | 0.00 | 0.00 | 40 | 1013.2 |
| 20260506153306 | 50 | 259 | 5.0 | 12.0 | 0.00 | 0.00 | 0.00 | 41 | 1013.2 |
| 20260506153206 | 50 | 258 | 5.0 | 12.0 | 0.00 | 0.00 | 0.00 | 41 | 1013.2 |
| 20260506153106 | 50 | 255 | 5.0 | 12.0 | 0.00 | 0.00 | 0.00 | 43 | 1013.2 |
| 20260506153006 | 50 | 253 | 4.0 | 12.0 | 0.00 | 0.00 | 0.00 | 42 | 1013.2 |
| 20260506152927 | 50 | 251 | 4.0 | 12.0 | 0.00 | 0.00 | 0.00 | 43 | 1013.2 |
| 20260506152806 | 50 | 251 | 4.0 | 12.0 | 0.00 | 0.00 | 0.00 | 45 | 1013.1 |
| 20260506152706 | 50 | 249 | 4.0 | 12.0 | 0.00 | 0.00 | 0.00 | 45 | 1013.1 |
| 20260506152606 | 50 | 248 | 4.0 | 12.0 | 0.00 | 0.00 | 0.00 | 44 | 1013.1 |
| 20260506152527 | 50 | 247 | 4.0 | 12.0 | 0.00 | 0.00 | 0.00 | 42 | 1013.1 |
| 20260506152406 | 51 | 246 | 4.0 | 12.0 | 0.00 | 0.00 | 0.00 | 42 | 1013.1 |
| 20260506152327 | 51 | 249 | 4.0 | 10.0 | 0.00 | 0.00 | 0.00 | 42 | 1013.1 |
| 20260506152206 | 51 | 250 | 3.0 | 8.0 | 0.00 | 0.00 | 0.00 | 41 | 1013.1 |
| 20260506152106 | 51 | 252 | 3.0 | 8.0 | 0.00 | 0.00 | 0.00 | 42 | 1013.1 |
| 20260506152006 | 51 | 255 | 3.0 | 8.0 | 0.00 | 0.00 | 0.00 | 41 | 1013.0 |
| 20260506151906 | 51 | 256 | 3.0 | 8.0 | 0.00 | 0.00 | 0.00 | 41 | 1013.0 |
| 20260506151806 | 51 | 257 | 3.0 | 8.0 | 0.00 | 0.00 | 0.00 | 42 | 1013.0 |
| 20260506151727 | 51 | 256 | 3.0 | 8.0 | 0.00 | 0.00 | 0.00 | 43 | 1013.0 |
| 20260506151606 | 51 | 261 | 3.0 | 8.0 | 0.00 | 0.00 | 0.00 | 42 | 1013.1 |
| 20260506151506 | 51 | 262 | 3.0 | 8.0 | 0.00 | 0.00 | 0.00 | 42 | 1013.1 |
| 20260506151406 | 51 | 267 | 3.0 | 8.0 | 0.00 | 0.00 | 0.00 | 42 | 1013.1 |
| 20260506151306 | 51 | 273 | 3.0 | 8.0 | 0.00 | 0.00 | 0.00 | 42 | 1013.0 |
| 20260506151207 | 51 | 279 | 3.0 | 8.0 | 0.00 | 0.00 | 0.00 | 43 | 1013.0 |
| 20260506151106 | 51 | 278 | 3.0 | 8.0 | 0.00 | 0.00 | 0.00 | 42 | 1013.0 |
| 20260506151027 | 51 | 273 | 3.0 | 8.0 | 0.00 | 0.00 | 0.00 | 42 | 1013.0 |
| 20260506150906 | 51 | 268 | 4.0 | 12.0 | 0.00 | 0.00 | 0.00 | 42 | 1013.0 |
| 20260506150806 | 51 | 265 | 4.0 | 12.0 | 0.00 | 0.00 | 0.00 | 42 | 1013.0 |
| 20260506150706 | 51 | 264 | 5.0 | 12.0 | 0.00 | 0.00 | 0.00 | 43 | 1013.0 |
| 20260506150606 | 51 | 265 | 4.0 | 12.0 | 0.00 | 0.00 | 0.00 | 42 | 1013.0 |
| 20260506150506 | 51 | 264 | 5.0 | 12.0 | 0.00 | 0.00 | 0.00 | 42 | 1013.0 |
| 20260506150406 | 51 | 260 | 4.0 | 12.0 | 0.00 | 0.00 | 0.00 | 44 | 1013.0 |
| 20260506150305 | 51 | 256 | 4.0 | 12.0 | 0.00 | 0.00 | 0.00 | 44 | 1013.0 |
| 20260506150227 | 51 | 255 | 4.0 | 12.0 | 0.00 | 0.00 | 0.00 | 44 | 1013.0 |
| 20260506150106 | 51 | 253 | 4.0 | 12.0 | 0.00 | 0.00 | 0.00 | 43 | 1013.0 |
| 20260506150006 | 50 | 256 | 3.0 | 12.0 | 0.00 | 0.00 | 0.00 | 43 | 1013.1 |
| 20260506145906 | 51 | 258 | 3.0 | 11.0 | 0.00 | 0.00 | 0.00 | 43 | 1013.1 |
| 20260506145806 | 51 | 261 | 2.0 | 10.0 | 0.00 | 0.00 | 0.00 | 43 | 1013.0 |
| 20260506145706 | 51 | 262 | 2.0 | 7.0 | 0.00 | 0.00 | 0.00 | 45 | 1012.9 |
| 20260506145606 | 51 | 256 | 2.0 | 7.0 | 0.00 | 0.00 | 0.00 | 46 | 1012.9 |
| 20260506145506 | 51 | 270 | 1.0 | 7.0 | 0.00 | 0.00 | 0.00 | 46 | 1013.0 |
| 20260506145406 | 51 | 292 | 1.0 | 9.0 | 0.00 | 0.00 | 0.00 | 48 | 1013.0 |
| 20260506145306 | 51 | 309 | 1.0 | 9.0 | 0.00 | 0.00 | 0.00 | 46 | 1012.9 |
| 20260506145206 | 51 | 308 | 2.0 | 9.0 | 0.00 | 0.00 | 0.00 | 47 | 1012.9 |
| 20260506145106 | 50 | 307 | 2.0 | 9.0 | 0.00 | 0.00 | 0.00 | 47 | 1012.9 |
| 20260506145006 | 50 | 309 | 2.0 | 9.0 | 0.00 | 0.00 | 0.00 | 48 | 1012.8 |
| 20260506144906 | 50 | 313 | 2.0 | 9.0 | 0.00 | 0.00 | 0.00 | 46 | 1012.8 |
| 20260506144806 | 50 | 317 | 2.0 | 9.0 | 0.00 | 0.00 | 0.00 | 47 | 1012.8 |
| 20260506144706 | 50 | 321 | 2.0 | 9.0 | 0.00 | 0.00 | 0.00 | 47 | 1013.0 |
| 20260506144627 | 50 | 322 | 2.0 | 9.0 | 0.00 | 0.00 | 0.00 | 47 | 1013.0 |
| 20260506144506 | 50 | 321 | 2.0 | 9.0 | 0.00 | 0.00 | 0.00 | 46 | 1012.9 |
| 20260506144406 | 50 | 319 | 2.0 | 8.0 | 0.00 | 0.00 | 0.00 | 46 | 1012.9 |
| 20260506144306 | 50 | 317 | 2.0 | 8.0 | 0.00 | 0.00 | 0.00 | 46 | 1012.9 |
| 20260506144206 | 50 | 313 | 2.0 | 6.0 | 0.00 | 0.00 | 0.00 | 45 | 1012.9 |
| 20260506144106 | 50 | 296 | 2.0 | 7.0 | 0.00 | 0.00 | 0.00 | 46 | 1012.9 |
| 20260506144005 | 50 | 292 | 2.0 | 7.0 | 0.00 | 0.00 | 0.00 | 45 | 1012.8 |
| 20260506143906 | 50 | 293 | 2.0 | 7.0 | 0.00 | 0.00 | 0.00 | 46 | 1012.8 |
| 20260506143806 | 50 | 289 | 2.0 | 7.0 | 0.00 | 0.00 | 0.00 | 45 | 1012.8 |
| 20260506143706 | 50 | 285 | 2.0 | 7.0 | 0.00 | 0.00 | 0.00 | 46 | 1012.7 |
| 20260506143626 | 50 | 283 | 2.0 | 7.0 | 0.00 | 0.00 | 0.00 | 46 | 1012.7 |
| 20260506143506 | 50 | 278 | 2.0 | 7.0 | 0.00 | 0.00 | 0.00 | 46 | 1012.7 |
| 20260506143428 | 50 | 274 | 2.0 | 7.0 | 0.00 | 0.00 | 0.00 | 46 | 1012.7 |
| 20260506143305 | 50 | 265 | 2.0 | 7.0 | 0.00 | 0.00 | 0.00 | 44 | 1012.7 |
| 20260506143226 | 50 | 266 | 2.0 | 7.0 | 0.00 | 0.00 | 0.00 | 44 | 1012.7 |
| 20260506143127 | 50 | 268 | 2.0 | 5.0 | 0.00 | 0.00 | 0.00 | 46 | 1012.7 |
| 20260506143006 | 50 | 266 | 2.0 | 5.0 | 0.00 | 0.00 | 0.00 | 45 | 1012.7 |
| 20260506142906 | 50 | 262 | 2.0 | 5.0 | 0.00 | 0.00 | 0.00 | 45 | 1012.8 |
| 20260506142806 | 50 | 257 | 2.0 | 5.0 | 0.00 | 0.00 | 0.00 | 45 | 1012.8 |
| 20260506142727 | 50 | 255 | 2.0 | 5.0 | 0.00 | 0.00 | 0.00 | 48 | 1012.7 |
| 20260506142606 | 50 | 246 | 2.0 | 8.0 | 0.00 | 0.00 | 0.00 | 49 | 1012.6 |
| 20260506142506 | 49 | 244 | 3.0 | 8.0 | 0.00 | 0.00 | 0.00 | 48 | 1012.6 |
| 20260506142406 | 49 | 247 | 3.0 | 8.0 | 0.00 | 0.00 | 0.00 | 47 | 1012.7 |
| 20260506142306 | 49 | 249 | 3.0 | 8.0 | 0.00 | 0.00 | 0.00 | 48 | 1012.7 |
| 20260506142206 | 49 | 252 | 3.0 | 8.0 | 0.00 | 0.00 | 0.00 | 48 | 1012.6 |
| 20260506142106 | 49 | 250 | 3.0 | 8.0 | 0.00 | 0.00 | 0.00 | 48 | 1012.6 |
| 20260506142006 | 49 | 251 | 2.0 | 8.0 | 0.00 | 0.00 | 0.00 | 47 | 1012.6 |
| 20260506141905 | 49 | 250 | 2.0 | 8.0 | 0.00 | 0.00 | 0.00 | 46 | 1012.6 |
| 20260506141806 | 49 | 250 | 2.0 | 8.0 | 0.00 | 0.00 | 0.00 | 46 | 1012.6 |
| 20260506141706 | 50 | 251 | 2.0 | 8.0 | 0.00 | 0.00 | 0.00 | 46 | 1012.6 |
| 20260506141606 | 50 | 252 | 2.0 | 7.0 | 0.00 | 0.00 | 0.00 | 45 | 1012.6 |
| 20260506141505 | 50 | 251 | 1.0 | 7.0 | 0.00 | 0.00 | 0.00 | 46 | 1012.6 |
| 20260506141426 | 50 | 249 | 1.0 | 4.0 | 0.00 | 0.00 | 0.00 | 46 | 1012.5 |
| 20260506141306 | 50 | 231 | 1.0 | 4.0 | 0.00 | 0.00 | 0.00 | 47 | 1012.5 |
| 20260506141206 | 50 | 217 | 1.0 | 3.0 | 0.00 | 0.00 | 0.00 | 49 | 1012.5 |
| 20260506141106 | 50 | 218 | 1.0 | 3.0 | 0.00 | 0.00 | 0.00 | 49 | 1012.5 |
| 20260506141027 | 50 | 220 | 1.0 | 3.0 | 0.00 | 0.00 | 0.00 | 49 | 1012.5 |
| 20260506140906 | 50 | 0 | 0.0 | 3.0 | 0.00 | 0.00 | 0.00 | 51 | 1012.5 |
| 20260506140806 | 50 | 0 | 0.0 | 2.0 | 0.00 | 0.00 | 0.00 | 50 | 1012.5 |
| 20260506140706 | 50 | 54 | 1.0 | 3.0 | 0.00 | 0.00 | 0.00 | 51 | 1012.5 |
| 20260506140626 | 50 | 48 | 1.0 | 3.0 | 0.00 | 0.00 | 0.00 | 52 | 1012.5 |
| 20260506140506 | 50 | 44 | 1.0 | 3.0 | 0.00 | 0.00 | 0.00 | 53 | 1012.5 |
| 20260506140427 | 50 | 42 | 1.0 | 3.0 | 0.00 | 0.00 | 0.00 | 53 | 1012.5 |
| 20260506140305 | 49 | 27 | 1.0 | 3.0 | 0.00 | 0.00 | 0.00 | 54 | 1012.6 |
| 20260506140205 | 49 | 31 | 1.0 | 3.0 | 0.00 | 0.00 | 0.00 | 53 | 1012.6 |
| 20260506140106 | 49 | 18 | 1.0 | 3.0 | 0.00 | 0.00 | 0.00 | 53 | 1012.6 |
| 20260506140006 | 49 | 4 | 1.0 | 3.0 | 0.00 | 0.00 | 0.00 | 53 | 1012.5 |
| 20260506135906 | 49 | 348 | 1.0 | 3.0 | 0.00 | 0.00 | 0.00 | 53 | 1012.5 |
| 20260506135805 | 49 | 309 | 1.0 | 3.0 | 0.00 | 0.00 | 0.00 | 54 | 1012.5 |
| 20260506135706 | 49 | 258 | 1.0 | 3.0 | 0.00 | 0.00 | 0.00 | 54 | 1012.5 |
| 20260506135606 | 49 | 244 | 1.0 | 3.0 | 0.00 | 0.00 | 0.00 | 55 | 1012.5 |
| 20260506135527 | 49 | 243 | 1.0 | 3.0 | 0.00 | 0.00 | 0.00 | 55 | 1012.5 |
| 20260506135406 | 48 | 229 | 1.0 | 3.0 | 0.00 | 0.00 | 0.00 | 54 | 1012.4 |
| 20260506135306 | 48 | 226 | 1.0 | 3.0 | 0.00 | 0.00 | 0.00 | 54 | 1012.4 |
| 20260506135206 | 48 | 224 | 1.0 | 3.0 | 0.00 | 0.00 | 0.00 | 54 | 1012.4 |
| 20260506135106 | 48 | 213 | 1.0 | 3.0 | 0.00 | 0.00 | 0.00 | 54 | 1012.3 |
| 20260506135027 | 48 | 200 | 1.0 | 3.0 | 0.00 | 0.00 | 0.00 | 53 | 1012.3 |
| 20260506134906 | 48 | 156 | 1.0 | 3.0 | 0.00 | 0.00 | 0.00 | 53 | 1012.3 |
| 20260506134806 | 49 | 129 | 1.0 | 3.0 | 0.00 | 0.00 | 0.00 | 55 | 1012.4 |
| 20260506134706 | 49 | 114 | 1.0 | 3.0 | 0.00 | 0.00 | 0.00 | 57 | 1012.4 |
| 20260506134626 | 49 | 111 | 1.0 | 3.0 | 0.00 | 0.00 | 0.00 | 56 | 1012.4 |
| 20260506134527 | 49 | 109 | 1.0 | 3.0 | 0.00 | 0.00 | 0.00 | 56 | 1012.4 |
| 20260506134406 | 48 | 109 | 1.0 | 3.0 | 0.00 | 0.00 | 0.00 | 57 | 1012.4 |
| 20260506134306 | 48 | 108 | 1.0 | 3.0 | 0.00 | 0.00 | 0.00 | 57 | 1012.4 |
| 20260506134206 | 48 | 109 | 1.0 | 3.0 | 0.00 | 0.00 | 0.00 | 57 | 1012.3 |
| 20260506134106 | 48 | 110 | 1.0 | 3.0 | 0.00 | 0.00 | 0.00 | 59 | 1012.3 |
| 20260506134006 | 48 | 108 | 1.0 | 3.0 | 0.00 | 0.00 | 0.00 | 59 | 1012.3 |
| 20260506133927 | 48 | 106 | 1.0 | 3.0 | 0.00 | 0.00 | 0.00 | 60 | 1012.3 |
| 20260506133827 | 48 | 0 | 0.0 | 2.0 | 0.00 | 0.00 | 0.00 | 59 | 1012.3 |
| 20260506133706 | 48 | 94 | 1.0 | 3.0 | 0.00 | 0.00 | 0.00 | 60 | 1012.2 |
| 20260506133606 | 48 | 0 | 0.0 | 3.0 | 0.00 | 0.00 | 0.00 | 61 | 1012.2 |
| 20260506133506 | 48 | 0 | 0.0 | 3.0 | 0.00 | 0.00 | 0.00 | 60 | 1012.2 |
| 20260506133405 | 48 | 0 | 0.0 | 3.0 | 0.00 | 0.00 | 0.00 | 60 | 1012.2 |
| 20260506133306 | 48 | 0 | 0.0 | 3.0 | 0.00 | 0.00 | 0.00 | 60 | 1012.2 |
| 20260506133206 | 48 | 91 | 1.0 | 3.0 | 0.00 | 0.00 | 0.00 | 60 | 1012.3 |
| 20260506133106 | 47 | 93 | 1.0 | 3.0 | 0.00 | 0.00 | 0.00 | 61 | 1012.3 |
| 20260506133006 | 47 | 95 | 1.0 | 3.0 | 0.00 | 0.00 | 0.00 | 62 | 1012.2 |
| 20260506132906 | 47 | 95 | 1.0 | 3.0 | 0.00 | 0.00 | 0.00 | 62 | 1012.2 |
| 20260506132806 | 47 | 100 | 1.0 | 3.0 | 0.00 | 0.00 | 0.00 | 63 | 1012.3 |
| 20260506132705 | 47 | 107 | 1.0 | 2.0 | 0.00 | 0.00 | 0.00 | 64 | 1012.2 |
| 20260506132605 | 47 | 100 | 1.0 | 2.0 | 0.00 | 0.00 | 0.00 | 63 | 1012.2 |
| 20260506132506 | 47 | 72 | 1.0 | 5.0 | 0.00 | 0.00 | 0.00 | 64 | 1012.3 |
| 20260506132406 | 47 | 73 | 1.0 | 5.0 | 0.00 | 0.00 | 0.00 | 64 | 1012.2 |
| 20260506132307 | 47 | 73 | 1.0 | 5.0 | 0.00 | 0.00 | 0.00 | 64 | 1012.2 |
| 20260506132227 | 47 | 72 | 1.0 | 5.0 | 0.00 | 0.00 | 0.00 | 64 | 1012.3 |
| 20260506132106 | 47 | 67 | 1.0 | 5.0 | 0.00 | 0.00 | 0.00 | 65 | 1012.3 |
| 20260506132006 | 46 | 64 | 1.0 | 5.0 | 0.00 | 0.00 | 0.00 | 66 | 1012.2 |
| 20260506131905 | 46 | 70 | 1.0 | 5.0 | 0.00 | 0.00 | 0.00 | 66 | 1012.2 |
| 20260506131806 | 46 | 71 | 1.0 | 5.0 | 0.00 | 0.00 | 0.00 | 67 | 1012.2 |
| 20260506131706 | 46 | 76 | 1.0 | 5.0 | 0.00 | 0.00 | 0.00 | 66 | 1012.2 |
| 20260506131606 | 46 | 83 | 1.0 | 5.0 | 0.00 | 0.00 | 0.00 | 66 | 1012.2 |
| 20260506131505 | 46 | 102 | 1.0 | 2.0 | 0.00 | 0.00 | 0.00 | 67 | 1012.1 |
| 20260506131406 | 46 | 99 | 1.0 | 2.0 | 0.00 | 0.00 | 0.00 | 67 | 1012.2 |
| 20260506131305 | 46 | 100 | 1.0 | 2.0 | 0.00 | 0.00 | 0.00 | 67 | 1012.2 |
| 20260506131226 | 46 | 102 | 1.0 | 2.0 | 0.00 | 0.00 | 0.00 | 67 | 1012.2 |
| 20260506131127 | 46 | 102 | 1.0 | 2.0 | 0.00 | 0.00 | 0.00 | 67 | 1012.2 |
| 20260506131006 | 46 | 100 | 1.0 | 4.0 | 0.00 | 0.00 | 0.00 | 67 | 1012.2 |
| 20260506130905 | 46 | 99 | 1.0 | 4.0 | 0.00 | 0.00 | 0.00 | 68 | 1012.1 |
| 20260506130826 | 46 | 99 | 1.0 | 4.0 | 0.00 | 0.00 | 0.00 | 68 | 1012.1 |
| 20260506130727 | 45 | 97 | 1.0 | 4.0 | 0.00 | 0.00 | 0.00 | 69 | 1012.2 |
| 20260506130606 | 45 | 98 | 1.0 | 4.0 | 0.00 | 0.00 | 0.00 | 68 | 1012.1 |
| 20260506130506 | 45 | 102 | 1.0 | 4.0 | 0.00 | 0.00 | 0.00 | 69 | 1012.1 |
| 20260506130406 | 45 | 107 | 1.0 | 4.0 | 0.00 | 0.00 | 0.00 | 69 | 1012.1 |
| 20260506130305 | 45 | 108 | 1.0 | 4.0 | 0.00 | 0.00 | 0.00 | 70 | 1012.1 |
| 20260506130206 | 45 | 107 | 1.0 | 4.0 | 0.00 | 0.00 | 0.00 | 70 | 1012.2 |
| 20260506130106 | 45 | 108 | 1.0 | 4.0 | 0.00 | 0.00 | 0.00 | 70 | 1012.2 |
| 20260506130006 | 45 | 110 | 1.0 | 3.0 | 0.00 | 0.00 | 0.00 | 71 | 1012.2 |
| 20260506125905 | 44 | 110 | 1.0 | 3.0 | 0.00 | 0.00 | 0.00 | 71 | 1012.2 |
| 20260506125806 | 44 | 111 | 1.0 | 3.0 | 0.00 | 0.00 | 0.00 | 71 | 1012.2 |
| 20260506125706 | 44 | 108 | 1.0 | 3.0 | 0.00 | 0.00 | 0.00 | 72 | 1012.2 |
| 20260506125606 | 44 | 109 | 1.0 | 4.0 | 0.00 | 0.00 | 0.00 | 71 | 1012.2 |
| 20260506125526 | 44 | 109 | 1.0 | 4.0 | 0.00 | 0.00 | 0.00 | 71 | 1012.2 |
| 20260506125405 | 44 | 107 | 1.0 | 4.0 | 0.00 | 0.00 | 0.00 | 71 | 1012.3 |
| 20260506125306 | 44 | 106 | 1.0 | 4.0 | 0.00 | 0.00 | 0.00 | 71 | 1012.3 |
| 20260506125206 | 44 | 107 | 1.0 | 4.0 | 0.00 | 0.00 | 0.00 | 72 | 1012.3 |
| 20260506125105 | 44 | 106 | 1.0 | 4.0 | 0.00 | 0.00 | 0.00 | 72 | 1012.3 |
| 20260506125026 | 43 | 106 | 1.0 | 4.0 | 0.00 | 0.00 | 0.00 | 72 | 1012.3 |
| 20260506124906 | 43 | 105 | 1.0 | 4.0 | 0.00 | 0.00 | 0.00 | 72 | 1012.3 |
| 20260506124805 | 43 | 106 | 1.0 | 4.0 | 0.00 | 0.00 | 0.00 | 72 | 1012.3 |
| 20260506124705 | 43 | 110 | 1.0 | 4.0 | 0.00 | 0.00 | 0.00 | 72 | 1012.3 |
| 20260506124605 | 43 | 110 | 1.0 | 4.0 | 0.00 | 0.00 | 0.00 | 73 | 1012.3 |
| 20260506124505 | 43 | 110 | 1.0 | 3.0 | 0.00 | 0.00 | 0.00 | 73 | 1012.3 |
| 20260506124406 | 43 | 110 | 1.0 | 3.0 | 0.00 | 0.00 | 0.00 | 73 | 1012.3 |
| 20260506124306 | 43 | 110 | 1.0 | 3.0 | 0.00 | 0.00 | 0.00 | 74 | 1012.3 |
| 20260506124205 | 43 | 110 | 1.0 | 3.0 | 0.00 | 0.00 | 0.00 | 74 | 1012.3 |
| 20260506124105 | 43 | 111 | 1.0 | 3.0 | 0.00 | 0.00 | 0.00 | 75 | 1012.2 |
| 20260506124006 | 43 | 111 | 1.0 | 3.0 | 0.00 | 0.00 | 0.00 | 75 | 1012.2 |
| 20260506123927 | 42 | 111 | 1.0 | 3.0 | 0.00 | 0.00 | 0.00 | 75 | 1012.2 |
| 20260506123805 | 42 | 111 | 1.0 | 3.0 | 0.00 | 0.00 | 0.00 | 74 | 1012.2 |
| 20260506123726 | 42 | 110 | 1.0 | 3.0 | 0.00 | 0.00 | 0.00 | 74 | 1012.2 |
| 20260506123606 | 42 | 109 | 1.0 | 3.0 | 0.00 | 0.00 | 0.00 | 75 | 1012.2 |
| 20260506123506 | 42 | 108 | 1.0 | 3.0 | 0.00 | 0.00 | 0.00 | 75 | 1012.2 |
| 20260506123405 | 42 | 108 | 1.0 | 3.0 | 0.00 | 0.00 | 0.00 | 75 | 1012.2 |
| 20260506123306 | 42 | 110 | 1.0 | 3.0 | 0.00 | 0.00 | 0.00 | 76 | 1012.2 |
| 20260506123206 | 42 | 0 | 0.0 | 2.0 | 0.00 | 0.00 | 0.00 | 76 | 1012.2 |
| 20260506123106 | 42 | 0 | 0.0 | 2.0 | 0.00 | 0.00 | 0.00 | 76 | 1012.3 |
| 20260506123006 | 42 | 0 | 0.0 | 2.0 | 0.00 | 0.00 | 0.00 | 76 | 1012.3 |
| 20260506122905 | 41 | 0 | 0.0 | 2.0 | 0.00 | 0.00 | 0.00 | 77 | 1012.3 |
| 20260506122805 | 41 | 0 | 0.0 | 2.0 | 0.00 | 0.00 | 0.00 | 77 | 1012.2 |
| 20260506122726 | 41 | 0 | 0.0 | 2.0 | 0.00 | 0.00 | 0.00 | 77 | 1012.2 |
| 20260506122606 | 41 | 0 | 0.0 | 2.0 | 0.00 | 0.00 | 0.00 | 77 | 1012.2 |
| 20260506122505 | 41 | 0 | 0.0 | 2.0 | 0.00 | 0.00 | 0.00 | 78 | 1012.2 |
| 20260506122405 | 41 | 0 | 0.0 | 2.0 | 0.00 | 0.00 | 0.00 | 78 | 1012.2 |
| 20260506122326 | 41 | 0 | 0.0 | 2.0 | 0.00 | 0.00 | 0.00 | 79 | 1012.2 |
| 20260506122205 | 40 | 0 | 0.0 | 2.0 | 0.00 | 0.00 | 0.00 | 79 | 1012.2 |
| 20260506122105 | 40 | 0 | 0.0 | 2.0 | 0.00 | 0.00 | 0.00 | 79 | 1012.2 |
| 20260506122006 | 40 | 0 | 0.0 | 2.0 | 0.00 | 0.00 | 0.00 | 80 | 1012.1 |
| 20260506121905 | 40 | 0 | 0.0 | 2.0 | 0.00 | 0.00 | 0.00 | 80 | 1012.1 |
| 20260506121805 | 40 | 0 | 0.0 | 0.0 | 0.00 | 0.00 | 0.00 | 80 | 1012.1 |
| 20260506121705 | 40 | 0 | 0.0 | 0.0 | 0.00 | 0.00 | 0.00 | 80 | 1012.1 |
| 20260506121605 | 40 | 0 | 0.0 | 0.0 | 0.00 | 0.00 | 0.00 | 81 | 1012.1 |
| 20260506121505 | 39 | 0 | 0.0 | 0.0 | 0.00 | 0.00 | 0.00 | 81 | 1012.1 |
| 20260506121405 | 39 | 0 | 0.0 | 0.0 | 0.00 | 0.00 | 0.00 | 81 | 1012.1 |
| 20260506121205 | 39 | 0 | 0.0 | 0.0 | 0.00 | 0.00 | 0.00 | 81 | 1012.0 |
| 20260506121106 | 39 | 0 | 0.0 | 0.0 | 0.00 | 0.00 | 0.00 | 81 | 1012.0 |
| 20260506121005 | 39 | 0 | 0.0 | 0.0 | 0.00 | 0.00 | 0.00 | 82 | 1012.0 |
| 20260506120905 | 39 | 0 | 0.0 | 0.0 | 0.00 | 0.00 | 0.00 | 82 | 1012.0 |
| 20260506120805 | 39 | 0 | 0.0 | 0.0 | 0.00 | 0.00 | 0.00 | 82 | 1011.9 |
| 20260506120705 | 39 | 0 | 0.0 | 0.0 | 0.00 | 0.00 | 0.00 | 82 | 1011.9 |
| 20260506120605 | 38 | 0 | 0.0 | 0.0 | 0.00 | 0.00 | 0.00 | 82 | 1011.9 |
| 20260506120506 | 38 | 0 | 0.0 | 0.0 | 0.00 | 0.00 | 0.00 | 82 | 1011.9 |
| 20260506120405 | 38 | 0 | 0.0 | 0.0 | 0.00 | 0.00 | 0.00 | 83 | 1011.9 |
| 20260506120305 | 38 | 0 | 0.0 | 0.0 | 0.00 | 0.00 | 0.00 | 83 | 1011.9 |
| 20260506120226 | 38 | 0 | 0.0 | 0.0 | 0.00 | 0.00 | 0.00 | 83 | 1011.9 |
| 20260506120126 | 38 | 0 | 0.0 | 0.0 | 0.00 | 0.00 | 0.00 | 83 | 1011.9 |
| 20260506120006 | 38 | 0 | 0.0 | 0.0 | 0.00 | 0.00 | 0.00 | 84 | 1011.9 |
| 20260506115927 | 38 | 0 | 0.0 | 0.0 | 0.00 | 0.00 | 0.00 | 84 | 1011.9 |
| 20260506115805 | 38 | 0 | 0.0 | 0.0 | 0.00 | 0.00 | 0.00 | 84 | 1011.9 |
| 20260506115705 | 38 | 0 | 0.0 | 0.0 | 0.00 | 0.00 | 0.00 | 84 | 1011.8 |
| 20260506115626 | 38 | 0 | 0.0 | 0.0 | 0.00 | 0.00 | 0.00 | 84 | 1011.8 |
| 20260506115505 | 38 | 0 | 0.0 | 0.0 | 0.00 | 0.00 | 0.00 | 84 | 1011.8 |
| 20260506115406 | 37 | 0 | 0.0 | 0.0 | 0.00 | 0.00 | 0.00 | 85 | 1011.7 |
| 20260506115327 | 37 | 0 | 0.0 | 0.0 | 0.00 | 0.00 | 0.00 | 85 | 1011.7 |
| 20260506115205 | 37 | 0 | 0.0 | 0.0 | 0.00 | 0.00 | 0.00 | 85 | 1011.7 |
| 20260506115105 | 37 | 0 | 0.0 | 0.0 | 0.00 | 0.00 | 0.00 | 86 | 1011.7 |
| 20260506115005 | 37 | 0 | 0.0 | 0.0 | 0.00 | 0.00 | 0.00 | 86 | 1011.7 |
| 20260506114926 | 37 | 0 | 0.0 | 0.0 | 0.00 | 0.00 | 0.00 | 86 | 1011.7 |
| 20260506114806 | 37 | 0 | 0.0 | 0.0 | 0.00 | 0.00 | 0.00 | 86 | 1011.7 |
| 20260506114726 | 36 | 0 | 0.0 | 0.0 | 0.00 | 0.00 | 0.00 | 86 | 1011.6 |
| 20260506114605 | 36 | 0 | 0.0 | 0.0 | 0.00 | 0.00 | 0.00 | 86 | 1011.6 |
| 20260506114505 | 36 | 0 | 0.0 | 0.0 | 0.00 | 0.00 | 0.00 | 86 | 1011.6 |
| 20260506114405 | 36 | 0 | 0.0 | 0.0 | 0.00 | 0.00 | 0.00 | 86 | 1011.5 |
| 20260506114327 | 36 | 0 | 0.0 | 0.0 | 0.00 | 0.00 | 0.00 | 86 | 1011.5 |
| 20260506114206 | 36 | 0 | 0.0 | 0.0 | 0.00 | 0.00 | 0.00 | 86 | 1011.5 |
| 20260506114105 | 36 | 0 | 0.0 | 0.0 | 0.00 | 0.00 | 0.00 | 86 | 1011.5 |
| 20260506114026 | 36 | 0 | 0.0 | 0.0 | 0.00 | 0.00 | 0.00 | 86 | 1011.5 |
| 20260506113926 | 36 | 0 | 0.0 | 0.0 | 0.00 | 0.00 | 0.00 | 86 | 1011.5 |
| 20260506113806 | 36 | 0 | 0.0 | 1.0 | 0.00 | 0.00 | 0.00 | 86 | 1011.5 |
| 20260506113726 | 36 | 0 | 0.0 | 1.0 | 0.00 | 0.00 | 0.00 | 86 | 1011.4 |
| 20260506113605 | 36 | 0 | 0.0 | 1.0 | 0.00 | 0.00 | 0.00 | 86 | 1011.4 |
| 20260506113505 | 36 | 0 | 0.0 | 1.0 | 0.00 | 0.00 | 0.00 | 86 | 1011.4 |
| 20260506113405 | 36 | 0 | 0.0 | 1.0 | 0.00 | 0.00 | 0.00 | 86 | 1011.3 |
| 20260506113326 | 36 | 0 | 0.0 | 1.0 | 0.00 | 0.00 | 0.00 | 87 | 1011.3 |
| 20260506113206 | 36 | 0 | 0.0 | 1.0 | 0.00 | 0.00 | 0.00 | 87 | 1011.3 |
| 20260506113105 | 36 | 0 | 0.0 | 1.0 | 0.00 | 0.00 | 0.00 | 87 | 1011.3 |
| 20260506113005 | 36 | 0 | 0.0 | 1.0 | 0.00 | 0.00 | 0.00 | 87 | 1011.3 |
| 20260506112905 | 36 | 0 | 0.0 | 1.0 | 0.00 | 0.00 | 0.00 | 86 | 1011.2 |
| 20260506112826 | 36 | 0 | 0.0 | 0.0 | 0.00 | 0.00 | 0.00 | 86 | 1011.2 |
| 20260506112706 | 36 | 0 | 0.0 | 0.0 | 0.00 | 0.00 | 0.00 | 86 | 1011.2 |
| 20260506112606 | 36 | 0 | 0.0 | 0.0 | 0.00 | 0.00 | 0.00 | 86 | 1011.2 |
| 20260506112505 | 35 | 0 | 0.0 | 0.0 | 0.00 | 0.00 | 0.00 | 86 | 1011.2 |
| 20260506112405 | 35 | 0 | 0.0 | 0.0 | 0.00 | 0.00 | 0.00 | 86 | 1011.1 |
| 20260506112306 | 35 | 0 | 0.0 | 0.0 | 0.00 | 0.00 | 0.00 | 86 | 1011.1 |
| 20260506112206 | 35 | 0 | 0.0 | 0.0 | 0.00 | 0.00 | 0.00 | 86 | 1011.1 |
| 20260506112105 | 35 | 0 | 0.0 | 0.0 | 0.00 | 0.00 | 0.00 | 86 | 1011.0 |
| 20260506112005 | 35 | 0 | 0.0 | 0.0 | 0.00 | 0.00 | 0.00 | 86 | 1011.0 |
| 20260506111906 | 35 | 0 | 0.0 | 0.0 | 0.00 | 0.00 | 0.00 | 86 | 1011.1 |
| 20260506111826 | 35 | 0 | 0.0 | 0.0 | 0.00 | 0.00 | 0.00 | 86 | 1011.1 |
| 20260506111705 | 35 | 0 | 0.0 | 0.0 | 0.00 | 0.00 | 0.00 | 86 | 1011.1 |
| 20260506111606 | 35 | 0 | 0.0 | 0.0 | 0.00 | 0.00 | 0.00 | 86 | 1011.1 |
| 20260506111505 | 35 | 0 | 0.0 | 0.0 | 0.00 | 0.00 | 0.00 | 85 | 1011.1 |
| 20260506111405 | 35 | 0 | 0.0 | 0.0 | 0.00 | 0.00 | 0.00 | 85 | 1011.0 |
| 20260506111326 | 36 | 0 | 0.0 | 0.0 | 0.00 | 0.00 | 0.00 | 86 | 1011.0 |
| 20260506111206 | 36 | 0 | 0.0 | 0.0 | 0.00 | 0.00 | 0.00 | 86 | 1011.0 |
| 20260506111126 | 36 | 0 | 0.0 | 0.0 | 0.00 | 0.00 | 0.00 | 86 | 1011.0 |
| 20260506111005 | 36 | 0 | 0.0 | 0.0 | 0.00 | 0.00 | 0.00 | 86 | 1011.0 |
| 20260506110905 | 36 | 0 | 0.0 | 0.0 | 0.00 | 0.00 | 0.00 | 86 | 1011.0 |
| 20260506110805 | 36 | 0 | 0.0 | 0.0 | 0.00 | 0.00 | 0.00 | 86 | 1010.8 |
| 20260506110705 | 36 | 0 | 0.0 | 0.0 | 0.00 | 0.00 | 0.00 | 86 | 1010.8 |
| 20260506110605 | 36 | 0 | 0.0 | 0.0 | 0.00 | 0.00 | 0.00 | 85 | 1010.8 |
| 20260506110505 | 36 | 0 | 0.0 | 0.0 | 0.00 | 0.00 | 0.00 | 85 | 1010.8 |
| 20260506110426 | 36 | 0 | 0.0 | 0.0 | 0.00 | 0.00 | 0.00 | 85 | 1010.8 |
| 20260506110305 | 36 | 0 | 0.0 | 0.0 | 0.00 | 0.00 | 0.00 | 85 | 1010.8 |
| 20260506110206 | 36 | 0 | 0.0 | 1.0 | 0.00 | 0.00 | 0.00 | 85 | 1010.8 |
| 20260506110127 | 36 | 0 | 0.0 | 1.0 | 0.00 | 0.00 | 0.00 | 85 | 1010.8 |
| 20260506110005 | 36 | 0 | 0.0 | 1.0 | 0.00 | 0.00 | 0.00 | 85 | 1010.7 |
| 20260506105905 | 36 | 0 | 0.0 | 1.0 | 0.00 | 0.00 | 0.00 | 85 | 1010.7 |
| 20260506105826 | 36 | 0 | 0.0 | 1.0 | 0.00 | 0.00 | 0.00 | 85 | 1010.7 |
| 20260506105705 | 36 | 0 | 0.0 | 1.0 | 0.00 | 0.00 | 0.00 | 85 | 1010.7 |
| 20260506105605 | 36 | 0 | 0.0 | 1.0 | 0.00 | 0.00 | 0.00 | 85 | 1010.7 |
| 20260506105505 | 36 | 0 | 0.0 | 1.0 | 0.00 | 0.00 | 0.00 | 85 | 1010.7 |
| 20260506105426 | 36 | 0 | 0.0 | 1.0 | 0.00 | 0.00 | 0.00 | 85 | 1010.7 |
| 20260506105305 | 36 | 0 | 0.0 | 1.0 | 0.00 | 0.00 | 0.00 | 85 | 1010.6 |
| 20260506105206 | 36 | 0 | 0.0 | 1.0 | 0.00 | 0.00 | 0.00 | 85 | 1010.6 |
| 20260506105105 | 36 | 0 | 0.0 | 1.0 | 0.00 | 0.00 | 0.00 | 85 | 1010.6 |
| 20260506105005 | 36 | 0 | 0.0 | 1.0 | 0.00 | 0.00 | 0.00 | 85 | 1010.7 |
| 20260506104905 | 36 | 0 | 0.0 | 1.0 | 0.00 | 0.00 | 0.00 | 85 | 1010.7 |
| 20260506104805 | 36 | 0 | 0.0 | 1.0 | 0.00 | 0.00 | 0.00 | 85 | 1010.6 |
| 20260506104705 | 36 | 0 | 0.0 | 1.0 | 0.00 | 0.00 | 0.00 | 85 | 1010.7 |
| 20260506104605 | 36 | 0 | 0.0 | 1.0 | 0.00 | 0.00 | 0.00 | 85 | 1010.7 |
| 20260506104505 | 36 | 0 | 0.0 | 0.0 | 0.00 | 0.00 | 0.00 | 85 | 1010.6 |
| 20260506104405 | 36 | 0 | 0.0 | 0.0 | 0.00 | 0.00 | 0.00 | 85 | 1010.6 |
| 20260506104305 | 36 | 0 | 0.0 | 0.0 | 0.00 | 0.00 | 0.00 | 84 | 1010.7 |
| 20260506104205 | 36 | 0 | 0.0 | 0.0 | 0.00 | 0.00 | 0.00 | 84 | 1010.6 |
| 20260506104127 | 36 | 0 | 0.0 | 0.0 | 0.00 | 0.00 | 0.00 | 84 | 1010.6 |
| 20260506104005 | 36 | 0 | 0.0 | 0.0 | 0.00 | 0.00 | 0.00 | 84 | 1010.7 |
| 20260506103905 | 36 | 0 | 0.0 | 0.0 | 0.00 | 0.00 | 0.00 | 84 | 1010.7 |
| 20260506103805 | 36 | 0 | 0.0 | 1.0 | 0.00 | 0.00 | 0.00 | 84 | 1010.7 |
| 20260506103705 | 36 | 0 | 0.0 | 1.0 | 0.00 | 0.00 | 0.00 | 84 | 1010.7 |
| 20260506103605 | 36 | 0 | 0.0 | 1.0 | 0.00 | 0.00 | 0.00 | 83 | 1010.7 |
| 20260506103505 | 36 | 0 | 0.0 | 1.0 | 0.00 | 0.00 | 0.00 | 83 | 1010.8 |
| 20260506103405 | 36 | 0 | 0.0 | 1.0 | 0.00 | 0.00 | 0.00 | 83 | 1010.8 |
| 20260506103305 | 36 | 0 | 0.0 | 1.0 | 0.00 | 0.00 | 0.00 | 83 | 1010.8 |
| 20260506103205 | 36 | 0 | 0.0 | 1.0 | 0.00 | 0.00 | 0.00 | 83 | 1010.9 |
| 20260506103105 | 36 | 0 | 0.0 | 1.0 | 0.00 | 0.00 | 0.00 | 83 | 1010.9 |
| 20260506103006 | 36 | 0 | 0.0 | 1.0 | 0.00 | 0.00 | 0.00 | 83 | 1010.9 |
| 20260506102926 | 36 | 0 | 0.0 | 1.0 | 0.00 | 0.00 | 0.00 | 83 | 1010.9 |
| 20260506102805 | 36 | 0 | 0.0 | 0.0 | 0.00 | 0.00 | 0.00 | 82 | 1010.9 |
| 20260506102726 | 36 | 0 | 0.0 | 0.0 | 0.00 | 0.00 | 0.00 | 82 | 1010.8 |
| 20260506102605 | 36 | 0 | 0.0 | 0.0 | 0.00 | 0.00 | 0.00 | 82 | 1010.8 |
| 20260506102505 | 36 | 0 | 0.0 | 0.0 | 0.00 | 0.00 | 0.00 | 82 | 1010.8 |
| 20260506102405 | 36 | 0 | 0.0 | 0.0 | 0.00 | 0.00 | 0.00 | 82 | 1010.8 |
| 20260506102306 | 36 | 0 | 0.0 | 0.0 | 0.00 | 0.00 | 0.00 | 82 | 1010.8 |
| 20260506102206 | 36 | 0 | 0.0 | 0.0 | 0.00 | 0.00 | 0.00 | 82 | 1010.7 |
| 20260506102105 | 36 | 0 | 0.0 | 0.0 | 0.00 | 0.00 | 0.00 | 82 | 1010.7 |
| 20260506102005 | 36 | 0 | 0.0 | 0.0 | 0.00 | 0.00 | 0.00 | 82 | 1010.7 |
| 20260506101926 | 36 | 0 | 0.0 | 0.0 | 0.00 | 0.00 | 0.00 | 82 | 1010.7 |
| 20260506101826 | 36 | 0 | 0.0 | 0.0 | 0.00 | 0.00 | 0.00 | 82 | 1010.7 |
| 20260506101705 | 36 | 0 | 0.0 | 0.0 | 0.00 | 0.00 | 0.00 | 81 | 1010.8 |
| 20260506101605 | 36 | 0 | 0.0 | 0.0 | 0.00 | 0.00 | 0.00 | 81 | 1010.7 |
| 20260506101505 | 36 | 0 | 0.0 | 0.0 | 0.00 | 0.00 | 0.00 | 81 | 1010.7 |
| 20260506101405 | 36 | 0 | 0.0 | 0.0 | 0.00 | 0.00 | 0.00 | 81 | 1010.8 |
| 20260506101326 | 36 | 0 | 0.0 | 0.0 | 0.00 | 0.00 | 0.00 | 80 | 1010.8 |
| 20260506101205 | 36 | 0 | 0.0 | 0.0 | 0.00 | 0.00 | 0.00 | 80 | 1010.8 |
| 20260506101105 | 36 | 0 | 0.0 | 0.0 | 0.00 | 0.00 | 0.00 | 80 | 1010.8 |
| 20260506101005 | 36 | 0 | 0.0 | 0.0 | 0.00 | 0.00 | 0.00 | 80 | 1010.8 |
| 20260506100905 | 36 | 0 | 0.0 | 0.0 | 0.00 | 0.00 | 0.00 | 80 | 1010.8 |
| 20260506100826 | 36 | 0 | 0.0 | 0.0 | 0.00 | 0.00 | 0.00 | 80 | 1010.8 |
| 20260506100705 | 36 | 0 | 0.0 | 0.0 | 0.00 | 0.00 | 0.00 | 80 | 1010.7 |
| 20260506100605 | 36 | 0 | 0.0 | 0.0 | 0.00 | 0.00 | 0.00 | 79 | 1010.8 |
| 20260506100526 | 36 | 0 | 0.0 | 0.0 | 0.00 | 0.00 | 0.00 | 79 | 1010.8 |
| 20260506100405 | 36 | 0 | 0.0 | 0.0 | 0.00 | 0.00 | 0.00 | 79 | 1010.9 |
| 20260506100305 | 36 | 0 | 0.0 | 0.0 | 0.00 | 0.00 | 0.00 | 79 | 1010.8 |
| 20260506100226 | 36 | 0 | 0.0 | 0.0 | 0.00 | 0.00 | 0.00 | 79 | 1010.8 |
| 20260506100105 | 37 | 0 | 0.0 | 0.0 | 0.00 | 0.00 | 0.00 | 79 | 1010.8 |
| 20260506100005 | 37 | 0 | 0.0 | 0.0 | 0.00 | 0.00 | 0.00 | 78 | 1010.8 |
| 20260506095905 | 37 | 0 | 0.0 | 0.0 | 0.00 | 0.00 | 0.00 | 78 | 1010.7 |
| 20260506095805 | 37 | 0 | 0.0 | 0.0 | 0.00 | 0.00 | 0.00 | 79 | 1010.7 |
| 20260506095706 | 37 | 0 | 0.0 | 0.0 | 0.00 | 0.00 | 0.00 | 79 | 1010.7 |
| 20260506095605 | 37 | 0 | 0.0 | 0.0 | 0.00 | 0.00 | 0.00 | 78 | 1010.7 |
| 20260506095505 | 37 | 0 | 0.0 | 0.0 | 0.00 | 0.00 | 0.00 | 78 | 1010.7 |
| 20260506095405 | 37 | 0 | 0.0 | 0.0 | 0.00 | 0.00 | 0.00 | 78 | 1010.6 |
| 20260506095306 | 37 | 0 | 0.0 | 0.0 | 0.00 | 0.00 | 0.00 | 78 | 1010.6 |
| 20260506095206 | 37 | 0 | 0.0 | 0.0 | 0.00 | 0.00 | 0.00 | 78 | 1010.6 |
| 20260506095126 | 37 | 0 | 0.0 | 0.0 | 0.00 | 0.00 | 0.00 | 79 | 1010.6 |
| 20260506095005 | 37 | 0 | 0.0 | 0.0 | 0.00 | 0.00 | 0.00 | 78 | 1010.6 |
| 20260506094926 | 37 | 0 | 0.0 | 0.0 | 0.00 | 0.00 | 0.00 | 78 | 1010.6 |
| 20260506094826 | 37 | 0 | 0.0 | 0.0 | 0.00 | 0.00 | 0.00 | 78 | 1010.7 |
| 20260506094705 | 37 | 0 | 0.0 | 0.0 | 0.00 | 0.00 | 0.00 | 78 | 1010.7 |
| 20260506094627 | 37 | 0 | 0.0 | 0.0 | 0.00 | 0.00 | 0.00 | 78 | 1010.7 |
| 20260506094526 | 37 | 0 | 0.0 | 0.0 | 0.00 | 0.00 | 0.00 | 77 | 1010.7 |
| 20260506094405 | 37 | 0 | 0.0 | 0.0 | 0.00 | 0.00 | 0.00 | 77 | 1010.7 |
| 20260506094305 | 37 | 0 | 0.0 | 0.0 | 0.00 | 0.00 | 0.00 | 77 | 1010.7 |
| 20260506094205 | 37 | 0 | 0.0 | 0.0 | 0.00 | 0.00 | 0.00 | 77 | 1010.7 |
| 20260506094126 | 37 | 0 | 0.0 | 0.0 | 0.00 | 0.00 | 0.00 | 77 | 1010.7 |
| 20260506094005 | 38 | 0 | 0.0 | 0.0 | 0.00 | 0.00 | 0.00 | 78 | 1010.7 |
| 20260506093905 | 37 | 0 | 0.0 | 0.0 | 0.00 | 0.00 | 0.00 | 78 | 1010.7 |
| 20260506093805 | 37 | 0 | 0.0 | 0.0 | 0.00 | 0.00 | 0.00 | 78 | 1010.7 |
| 20260506093705 | 37 | 0 | 0.0 | 0.0 | 0.00 | 0.00 | 0.00 | 78 | 1010.7 |
| 20260506093606 | 37 | 0 | 0.0 | 0.0 | 0.00 | 0.00 | 0.00 | 78 | 1010.7 |
| 20260506093505 | 37 | 0 | 0.0 | 0.0 | 0.00 | 0.00 | 0.00 | 78 | 1010.7 |
| 20260506093405 | 37 | 0 | 0.0 | 0.0 | 0.00 | 0.00 | 0.00 | 79 | 1010.7 |
| 20260506093305 | 37 | 0 | 0.0 | 0.0 | 0.00 | 0.00 | 0.00 | 79 | 1010.6 |
| 20260506093205 | 37 | 0 | 0.0 | 0.0 | 0.00 | 0.00 | 0.00 | 78 | 1010.6 |
| 20260506093105 | 37 | 0 | 0.0 | 0.0 | 0.00 | 0.00 | 0.00 | 79 | 1010.6 |
| 20260506093005 | 37 | 0 | 0.0 | 0.0 | 0.00 | 0.00 | 0.00 | 78 | 1010.6 |
| 20260506092905 | 37 | 0 | 0.0 | 0.0 | 0.00 | 0.00 | 0.00 | 78 | 1010.6 |
| 20260506092805 | 37 | 0 | 0.0 | 0.0 | 0.00 | 0.00 | 0.00 | 78 | 1010.6 |
| 20260506092705 | 37 | 0 | 0.0 | 0.0 | 0.00 | 0.00 | 0.00 | 78 | 1010.5 |
| 20260506092605 | 37 | 0 | 0.0 | 0.0 | 0.00 | 0.00 | 0.00 | 78 | 1010.5 |
| 20260506092505 | 37 | 0 | 0.0 | 0.0 | 0.00 | 0.00 | 0.00 | 78 | 1010.5 |
| 20260506092405 | 37 | 0 | 0.0 | 0.0 | 0.00 | 0.00 | 0.00 | 78 | 1010.5 |
| 20260506092306 | 37 | 0 | 0.0 | 0.0 | 0.00 | 0.00 | 0.00 | 78 | 1010.5 |
| 20260506092205 | 37 | 0 | 0.0 | 0.0 | 0.00 | 0.00 | 0.00 | 78 | 1010.4 |
| 20260506092106 | 37 | 0 | 0.0 | 0.0 | 0.00 | 0.00 | 0.00 | 78 | 1010.4 |
| 20260506092005 | 37 | 0 | 0.0 | 0.0 | 0.00 | 0.00 | 0.00 | 79 | 1010.3 |
| 20260506091905 | 37 | 0 | 0.0 | 0.0 | 0.00 | 0.00 | 0.00 | 79 | 1010.3 |
| 20260506091805 | 37 | 0 | 0.0 | 0.0 | 0.00 | 0.00 | 0.00 | 79 | 1010.3 |
| 20260506091705 | 37 | 0 | 0.0 | 0.0 | 0.00 | 0.00 | 0.00 | 79 | 1010.3 |
| 20260506091627 | 37 | 0 | 0.0 | 0.0 | 0.00 | 0.00 | 0.00 | 79 | 1010.3 |
| 20260506091505 | 37 | 0 | 0.0 | 0.0 | 0.00 | 0.00 | 0.00 | 79 | 1010.3 |
| 20260506091405 | 37 | 0 | 0.0 | 0.0 | 0.00 | 0.00 | 0.00 | 78 | 1010.2 |
| 20260506091306 | 37 | 0 | 0.0 | 0.0 | 0.00 | 0.00 | 0.00 | 79 | 1010.2 |
| 20260506091205 | 37 | 0 | 0.0 | 0.0 | 0.00 | 0.00 | 0.00 | 79 | 1010.2 |
| 20260506091105 | 37 | 0 | 0.0 | 0.0 | 0.00 | 0.00 | 0.00 | 79 | 1010.2 |
| 20260506091005 | 37 | 0 | 0.0 | 0.0 | 0.00 | 0.00 | 0.00 | 79 | 1010.2 |
| 20260506090905 | 37 | 0 | 0.0 | 0.0 | 0.00 | 0.00 | 0.00 | 79 | 1010.1 |
| 20260506090805 | 37 | 0 | 0.0 | 0.0 | 0.00 | 0.00 | 0.00 | 79 | 1010.1 |
| 20260506090726 | 37 | 0 | 0.0 | 0.0 | 0.00 | 0.00 | 0.00 | 79 | 1010.1 |
| 20260506090605 | 37 | 0 | 0.0 | 0.0 | 0.00 | 0.00 | 0.00 | 79 | 1010.1 |
| 20260506090505 | 37 | 0 | 0.0 | 0.0 | 0.00 | 0.00 | 0.00 | 79 | 1010.1 |
| 20260506090405 | 37 | 0 | 0.0 | 0.0 | 0.00 | 0.00 | 0.00 | 79 | 1010.1 |
| 20260506090305 | 37 | 0 | 0.0 | 0.0 | 0.00 | 0.00 | 0.00 | 80 | 1010.1 |
| 20260506090205 | 37 | 0 | 0.0 | 0.0 | 0.00 | 0.00 | 0.00 | 80 | 1010.1 |
| 20260506090105 | 37 | 0 | 0.0 | 0.0 | 0.00 | 0.00 | 0.00 | 80 | 1010.1 |
| 20260506090005 | 37 | 0 | 0.0 | 0.0 | 0.00 | 0.00 | 0.00 | 80 | 1010.1 |
| 20260506085905 | 37 | 0 | 0.0 | 0.0 | 0.00 | 0.00 | 0.00 | 80 | 1010.1 |
| 20260506085805 | 37 | 0 | 0.0 | 0.0 | 0.00 | 0.00 | 0.00 | 80 | 1010.1 |
| 20260506085705 | 37 | 0 | 0.0 | 0.0 | 0.00 | 0.00 | 0.00 | 80 | 1010.2 |
| 20260506085605 | 37 | 0 | 0.0 | 0.0 | 0.00 | 0.00 | 0.00 | 80 | 1010.1 |
| 20260506085505 | 37 | 0 | 0.0 | 0.0 | 0.00 | 0.00 | 0.00 | 80 | 1010.1 |
| 20260506085405 | 37 | 0 | 0.0 | 0.0 | 0.00 | 0.00 | 0.00 | 80 | 1010.1 |
| 20260506085306 | 37 | 0 | 0.0 | 0.0 | 0.00 | 0.00 | 0.00 | 80 | 1010.1 |
| 20260506085205 | 37 | 0 | 0.0 | 0.0 | 0.00 | 0.00 | 0.00 | 80 | 1010.1 |
| 20260506085105 | 37 | 0 | 0.0 | 0.0 | 0.00 | 0.00 | 0.00 | 80 | 1010.1 |
| 20260506085005 | 37 | 0 | 0.0 | 0.0 | 0.00 | 0.00 | 0.00 | 80 | 1010.1 |
| 20260506084905 | 37 | 0 | 0.0 | 0.0 | 0.00 | 0.00 | 0.00 | 80 | 1010.1 |
| 20260506084805 | 37 | 0 | 0.0 | 0.0 | 0.00 | 0.00 | 0.00 | 80 | 1010.1 |
| 20260506084705 | 37 | 0 | 0.0 | 0.0 | 0.00 | 0.00 | 0.00 | 80 | 1010.1 |
| 20260506084605 | 37 | 0 | 0.0 | 0.0 | 0.00 | 0.00 | 0.00 | 80 | 1010.1 |
| 20260506084526 | 37 | 0 | 0.0 | 0.0 | 0.00 | 0.00 | 0.00 | 80 | 1010.1 |
| 20260506084405 | 37 | 0 | 0.0 | 0.0 | 0.00 | 0.00 | 0.00 | 80 | 1010.0 |
| 20260506084305 | 37 | 0 | 0.0 | 0.0 | 0.00 | 0.00 | 0.00 | 80 | 1010.0 |
| 20260506084205 | 37 | 0 | 0.0 | 0.0 | 0.00 | 0.00 | 0.00 | 80 | 1010.0 |
| 20260506084105 | 37 | 0 | 0.0 | 0.0 | 0.00 | 0.00 | 0.00 | 81 | 1009.9 |
| 20260506084005 | 37 | 0 | 0.0 | 0.0 | 0.00 | 0.00 | 0.00 | 81 | 1009.9 |
| 20260506083905 | 37 | 0 | 0.0 | 0.0 | 0.00 | 0.00 | 0.00 | 81 | 1009.9 |
| 20260506083805 | 37 | 0 | 0.0 | 0.0 | 0.00 | 0.00 | 0.00 | 81 | 1009.9 |
| 20260506083705 | 37 | 0 | 0.0 | 0.0 | 0.00 | 0.00 | 0.00 | 81 | 1009.9 |
| 20260506083605 | 37 | 0 | 0.0 | 0.0 | 0.00 | 0.00 | 0.00 | 81 | 1009.9 |
| 20260506083505 | 37 | 0 | 0.0 | 0.0 | 0.00 | 0.00 | 0.00 | 81 | 1009.9 |
| 20260506083405 | 37 | 0 | 0.0 | 0.0 | 0.00 | 0.00 | 0.00 | 81 | 1009.9 |
| 20260506083305 | 37 | 0 | 0.0 | 0.0 | 0.00 | 0.00 | 0.00 | 81 | 1009.9 |
| 20260506083205 | 37 | 0 | 0.0 | 0.0 | 0.00 | 0.00 | 0.00 | 82 | 1009.9 |
| 20260506083105 | 37 | 0 | 0.0 | 0.0 | 0.00 | 0.00 | 0.00 | 82 | 1009.9 |
| 20260506083005 | 37 | 0 | 0.0 | 0.0 | 0.00 | 0.00 | 0.00 | 82 | 1009.9 |
| 20260506082905 | 37 | 0 | 0.0 | 0.0 | 0.00 | 0.00 | 0.00 | 81 | 1009.9 |
| 20260506082805 | 37 | 0 | 0.0 | 0.0 | 0.00 | 0.00 | 0.00 | 81 | 1009.9 |
| 20260506082705 | 37 | 0 | 0.0 | 0.0 | 0.00 | 0.00 | 0.00 | 82 | 1009.9 |
| 20260506082606 | 37 | 0 | 0.0 | 0.0 | 0.00 | 0.00 | 0.00 | 81 | 1009.9 |
| 20260506082505 | 37 | 0 | 0.0 | 0.0 | 0.00 | 0.00 | 0.00 | 81 | 1010.0 |
| 20260506082405 | 37 | 0 | 0.0 | 0.0 | 0.00 | 0.00 | 0.00 | 81 | 1010.0 |
| 20260506082306 | 37 | 0 | 0.0 | 0.0 | 0.00 | 0.00 | 0.00 | 81 | 1009.9 |
| 20260506082205 | 37 | 0 | 0.0 | 0.0 | 0.00 | 0.00 | 0.00 | 81 | 1009.9 |
| 20260506082105 | 37 | 0 | 0.0 | 0.0 | 0.00 | 0.00 | 0.00 | 81 | 1010.0 |
| 20260506082005 | 37 | 0 | 0.0 | 0.0 | 0.00 | 0.00 | 0.00 | 81 | 1009.9 |
| 20260506081927 | 37 | 0 | 0.0 | 0.0 | 0.00 | 0.00 | 0.00 | 81 | 1009.9 |
| 20260506081805 | 37 | 0 | 0.0 | 0.0 | 0.00 | 0.00 | 0.00 | 81 | 1009.9 |
| 20260506081705 | 37 | 0 | 0.0 | 0.0 | 0.00 | 0.00 | 0.00 | 81 | 1009.9 |
| 20260506081605 | 37 | 0 | 0.0 | 0.0 | 0.00 | 0.00 | 0.00 | 82 | 1009.9 |
| 20260506081526 | 37 | 0 | 0.0 | 0.0 | 0.00 | 0.00 | 0.00 | 82 | 1009.9 |
| 20260506081405 | 37 | 0 | 0.0 | 0.0 | 0.00 | 0.00 | 0.00 | 82 | 1009.9 |
| 20260506081305 | 37 | 0 | 0.0 | 0.0 | 0.00 | 0.00 | 0.00 | 82 | 1010.0 |
| 20260506081205 | 37 | 0 | 0.0 | 0.0 | 0.00 | 0.00 | 0.00 | 82 | 1010.0 |
| 20260506081105 | 37 | 0 | 0.0 | 0.0 | 0.00 | 0.00 | 0.00 | 82 | 1010.0 |
| 20260506081005 | 37 | 0 | 0.0 | 0.0 | 0.00 | 0.00 | 0.00 | 81 | 1010.0 |
| 20260506080905 | 37 | 0 | 0.0 | 0.0 | 0.00 | 0.00 | 0.00 | 81 | 1010.0 |
| 20260506080805 | 37 | 0 | 0.0 | 0.0 | 0.00 | 0.00 | 0.00 | 81 | 1009.9 |
| 20260506080705 | 37 | 0 | 0.0 | 0.0 | 0.00 | 0.00 | 0.00 | 81 | 1010.0 |
| 20260506080605 | 37 | 0 | 0.0 | 0.0 | 0.00 | 0.00 | 0.00 | 81 | 1010.0 |
| 20260506080505 | 37 | 0 | 0.0 | 0.0 | 0.00 | 0.00 | 0.00 | 81 | 1010.0 |
| 20260506080426 | 37 | 0 | 0.0 | 0.0 | 0.00 | 0.00 | 0.00 | 81 | 1010.0 |
| 20260506080305 | 37 | 0 | 0.0 | 0.0 | 0.00 | 0.00 | 0.00 | 81 | 1010.0 |
| 20260506080205 | 37 | 0 | 0.0 | 0.0 | 0.00 | 0.00 | 0.00 | 81 | 1010.0 |
| 20260506080126 | 37 | 0 | 0.0 | 0.0 | 0.00 | 0.00 | 0.00 | 81 | 1010.0 |
| 20260506073505 | 37 | 0 | 0.0 | 0.0 | 0.00 | 0.00 | 0.00 | 82 | 1010.1 |
| 20260506073405 | 38 | 0 | 0.0 | 0.0 | 0.00 | 0.00 | 0.00 | 82 | 1010.1 |
| 20260506073305 | 37 | 0 | 0.0 | 0.0 | 0.00 | 0.00 | 0.00 | 82 | 1010.1 |
| 20260506073226 | 38 | 0 | 0.0 | 0.0 | 0.00 | 0.00 | 0.00 | 82 | 1010.1 |
| 20260506073106 | 38 | 0 | 0.0 | 0.0 | 0.00 | 0.00 | 0.00 | 82 | 1010.1 |
| 20260506073005 | 38 | 0 | 0.0 | 0.0 | 0.00 | 0.00 | 0.00 | 82 | 1010.1 |
| 20260506072905 | 38 | 0 | 0.0 | 0.0 | 0.00 | 0.00 | 0.00 | 82 | 1010.1 |
| 20260506072805 | 38 | 0 | 0.0 | 1.0 | 0.00 | 0.00 | 0.00 | 82 | 1010.1 |
| 20260506072705 | 38 | 0 | 0.0 | 1.0 | 0.00 | 0.00 | 0.00 | 82 | 1010.2 |
| 20260506072605 | 38 | 0 | 0.0 | 1.0 | 0.00 | 0.00 | 0.00 | 82 | 1010.2 |
| 20260506072505 | 38 | 0 | 0.0 | 1.0 | 0.00 | 0.00 | 0.00 | 82 | 1010.2 |
| 20260506072405 | 38 | 0 | 0.0 | 1.0 | 0.00 | 0.00 | 0.00 | 83 | 1010.2 |
| 20260506072306 | 38 | 0 | 0.0 | 1.0 | 0.00 | 0.00 | 0.00 | 83 | 1010.2 |
| 20260506072205 | 38 | 0 | 0.0 | 1.0 | 0.00 | 0.00 | 0.00 | 83 | 1010.2 |
| 20260506072105 | 38 | 0 | 0.0 | 1.0 | 0.00 | 0.00 | 0.00 | 83 | 1010.2 |
| 20260506072005 | 38 | 0 | 0.0 | 1.0 | 0.00 | 0.00 | 0.00 | 83 | 1010.2 |
| 20260506071905 | 38 | 0 | 0.0 | 1.0 | 0.00 | 0.00 | 0.00 | 83 | 1010.2 |
| 20260506071805 | 38 | 0 | 0.0 | 0.0 | 0.00 | 0.00 | 0.00 | 83 | 1010.1 |
| 20260506071726 | 38 | 0 | 0.0 | 0.0 | 0.00 | 0.00 | 0.00 | 83 | 1010.1 |
| 20260506071605 | 38 | 0 | 0.0 | 0.0 | 0.00 | 0.00 | 0.00 | 83 | 1010.1 |
| 20260506071505 | 38 | 0 | 0.0 | 0.0 | 0.00 | 0.00 | 0.00 | 83 | 1010.1 |
| 20260506071404 | 38 | 0 | 0.0 | 0.0 | 0.00 | 0.00 | 0.00 | 84 | 1010.2 |
| 20260506071326 | 38 | 0 | 0.0 | 0.0 | 0.00 | 0.00 | 0.00 | 84 | 1010.2 |
| 20260506071205 | 38 | 0 | 0.0 | 0.0 | 0.00 | 0.00 | 0.00 | 84 | 1010.1 |
| 20260506071105 | 38 | 0 | 0.0 | 0.0 | 0.00 | 0.00 | 0.00 | 84 | 1010.1 |
| 20260506071004 | 38 | 0 | 0.0 | 0.0 | 0.00 | 0.00 | 0.00 | 84 | 1010.1 |
| 20260506070925 | 38 | 0 | 0.0 | 0.0 | 0.00 | 0.00 | 0.00 | 84 | 1010.1 |
| 20260506070805 | 38 | 0 | 0.0 | 0.0 | 0.00 | 0.00 | 0.00 | 83 | 1010.1 |
| 20260506070705 | 38 | 0 | 0.0 | 0.0 | 0.00 | 0.00 | 0.00 | 83 | 1010.1 |
| 20260506070605 | 38 | 0 | 0.0 | 0.0 | 0.00 | 0.00 | 0.00 | 83 | 1010.0 |
| 20260506070505 | 38 | 0 | 0.0 | 0.0 | 0.00 | 0.00 | 0.00 | 83 | 1010.0 |
| 20260506070405 | 38 | 0 | 0.0 | 0.0 | 0.00 | 0.00 | 0.00 | 84 | 1010.0 |
| 20260506070305 | 38 | 0 | 0.0 | 0.0 | 0.00 | 0.00 | 0.00 | 84 | 1010.0 |
| 20260506070205 | 38 | 0 | 0.0 | 0.0 | 0.00 | 0.00 | 0.00 | 84 | 1010.0 |
| 20260506070105 | 38 | 0 | 0.0 | 0.0 | 0.00 | 0.00 | 0.00 | 84 | 1010.0 |
| 20260506062405 | 39 | 0 | 0.0 | 0.0 | 0.00 | 0.00 | 0.00 | 83 | 1010.1 |
| 20260506062306 | 39 | 0 | 0.0 | 0.0 | 0.00 | 0.00 | 0.00 | 83 | 1010.1 |
| 20260506062205 | 39 | 0 | 0.0 | 0.0 | 0.00 | 0.00 | 0.00 | 83 | 1010.1 |
| 20260506062104 | 39 | 0 | 0.0 | 0.0 | 0.00 | 0.00 | 0.00 | 83 | 1010.1 |
| 20260506062004 | 39 | 0 | 0.0 | 0.0 | 0.00 | 0.00 | 0.00 | 83 | 1010.1 |
| 20260506061905 | 39 | 0 | 0.0 | 0.0 | 0.00 | 0.00 | 0.00 | 83 | 1010.1 |
| 20260506061805 | 39 | 0 | 0.0 | 0.0 | 0.00 | 0.00 | 0.00 | 83 | 1010.1 |
| 20260506061726 | 39 | 0 | 0.0 | 0.0 | 0.00 | 0.00 | 0.00 | 83 | 1010.1 |
| 20260506061604 | 39 | 0 | 0.0 | 0.0 | 0.00 | 0.00 | 0.00 | 82 | 1010.1 |
| 20260506061504 | 39 | 0 | 0.0 | 0.0 | 0.00 | 0.00 | 0.00 | 82 | 1010.1 |
| 20260506061405 | 39 | 0 | 0.0 | 0.0 | 0.00 | 0.00 | 0.00 | 82 | 1010.1 |
| 20260506061305 | 39 | 0 | 0.0 | 0.0 | 0.00 | 0.00 | 0.00 | 82 | 1010.1 |
| 20260506061205 | 39 | 0 | 0.0 | 0.0 | 0.00 | 0.00 | 0.00 | 82 | 1010.2 |
| 20260506061104 | 39 | 0 | 0.0 | 0.0 | 0.00 | 0.00 | 0.00 | 82 | 1010.2 |
| 20260506061004 | 39 | 0 | 0.0 | 0.0 | 0.00 | 0.00 | 0.00 | 82 | 1010.2 |
| 20260506060905 | 39 | 0 | 0.0 | 0.0 | 0.00 | 0.00 | 0.00 | 82 | 1010.2 |
| 20260506060805 | 39 | 0 | 0.0 | 0.0 | 0.00 | 0.00 | 0.00 | 82 | 1010.2 |
| 20260506060705 | 39 | 0 | 0.0 | 0.0 | 0.00 | 0.00 | 0.00 | 83 | 1010.1 |
| 20260506060605 | 39 | 0 | 0.0 | 0.0 | 0.00 | 0.00 | 0.00 | 83 | 1010.2 |
| 20260506060504 | 39 | 0 | 0.0 | 0.0 | 0.00 | 0.00 | 0.00 | 83 | 1010.2 |
| 20260506060405 | 39 | 0 | 0.0 | 0.0 | 0.00 | 0.00 | 0.00 | 83 | 1010.1 |
| 20260506060305 | 39 | 0 | 0.0 | 0.0 | 0.00 | 0.00 | 0.00 | 83 | 1010.1 |
| 20260506060205 | 39 | 0 | 0.0 | 0.0 | 0.00 | 0.00 | 0.00 | 83 | 1010.2 |
| 20260506060104 | 39 | 0 | 0.0 | 0.0 | 0.00 | 0.00 | 0.00 | 83 | 1010.1 |
| 20260506051404 | 40 | 0 | 0.0 | 0.0 | 0.00 | 0.00 | 0.00 | 81 | 1010.2 |
| 20260506051326 | 40 | 0 | 0.0 | 1.0 | 0.00 | 0.00 | 0.00 | 81 | 1010.3 |
| 20260506051205 | 40 | 0 | 0.0 | 1.0 | 0.00 | 0.00 | 0.00 | 81 | 1010.2 |
| 20260506051104 | 40 | 0 | 0.0 | 1.0 | 0.00 | 0.00 | 0.00 | 81 | 1010.2 |
| 20260506051005 | 40 | 0 | 0.0 | 1.0 | 0.00 | 0.00 | 0.00 | 81 | 1010.2 |
| 20260506050904 | 40 | 0 | 0.0 | 1.0 | 0.00 | 0.00 | 0.00 | 81 | 1010.2 |
| 20260506050805 | 40 | 0 | 0.0 | 1.0 | 0.00 | 0.00 | 0.00 | 81 | 1010.2 |
| 20260506050705 | 40 | 0 | 0.0 | 1.0 | 0.00 | 0.00 | 0.00 | 81 | 1010.1 |
| 20260506050605 | 40 | 0 | 0.0 | 1.0 | 0.00 | 0.00 | 0.00 | 81 | 1010.1 |
| 20260506050526 | 40 | 0 | 0.0 | 1.0 | 0.00 | 0.00 | 0.00 | 81 | 1010.1 |
| 20260506050404 | 40 | 0 | 0.0 | 1.0 | 0.00 | 0.00 | 0.00 | 82 | 1010.0 |
| 20260506050304 | 40 | 0 | 0.0 | 0.0 | 0.00 | 0.00 | 0.00 | 81 | 1010.0 |
| 20260506050206 | 40 | 0 | 0.0 | 0.0 | 0.00 | 0.00 | 0.00 | 81 | 1010.1 |
| 20260506050105 | 40 | 0 | 0.0 | 0.0 | 0.00 | 0.00 | 0.00 | 82 | 1010.1 |
| 20260506045105 | 40 | 0 | 0.0 | 0.0 | 0.00 | 0.00 | 0.00 | 82 | 1010.4 |
| 20260506045004 | 40 | 0 | 0.0 | 0.0 | 0.00 | 0.00 | 0.00 | 82 | 1010.4 |
| 20260506044904 | 40 | 0 | 0.0 | 0.0 | 0.00 | 0.00 | 0.00 | 82 | 1010.4 |
| 20260506044805 | 40 | 0 | 0.0 | 0.0 | 0.00 | 0.00 | 0.00 | 82 | 1010.4 |
| 20260506044705 | 40 | 0 | 0.0 | 0.0 | 0.00 | 0.00 | 0.00 | 82 | 1010.2 |
| 20260506044605 | 40 | 0 | 0.0 | 0.0 | 0.00 | 0.00 | 0.00 | 82 | 1010.2 |
| 20260506044504 | 40 | 0 | 0.0 | 0.0 | 0.00 | 0.00 | 0.00 | 82 | 1010.2 |
| 20260506044404 | 40 | 0 | 0.0 | 0.0 | 0.00 | 0.00 | 0.00 | 82 | 1010.1 |
| 20260506044304 | 40 | 0 | 0.0 | 0.0 | 0.00 | 0.00 | 0.00 | 82 | 1010.1 |
| 20260506044205 | 40 | 0 | 0.0 | 0.0 | 0.00 | 0.00 | 0.00 | 82 | 1010.0 |
| 20260506044104 | 40 | 0 | 0.0 | 0.0 | 0.00 | 0.00 | 0.00 | 82 | 1009.9 |
| 20260506044004 | 40 | 0 | 0.0 | 0.0 | 0.00 | 0.00 | 0.00 | 82 | 1009.9 |
| 20260506043904 | 40 | 0 | 0.0 | 0.0 | 0.00 | 0.00 | 0.00 | 82 | 1009.8 |
| 20260506043805 | 40 | 0 | 0.0 | 0.0 | 0.00 | 0.00 | 0.00 | 81 | 1009.8 |
| 20260506043705 | 40 | 0 | 0.0 | 0.0 | 0.00 | 0.00 | 0.00 | 81 | 1009.7 |
| 20260506043604 | 40 | 0 | 0.0 | 0.0 | 0.00 | 0.00 | 0.00 | 81 | 1009.7 |
| 20260506043505 | 41 | 0 | 0.0 | 0.0 | 0.00 | 0.00 | 0.00 | 81 | 1009.7 |
| 20260506043404 | 41 | 0 | 0.0 | 0.0 | 0.00 | 0.00 | 0.00 | 81 | 1009.7 |
| 20260506043304 | 41 | 0 | 0.0 | 0.0 | 0.00 | 0.00 | 0.00 | 81 | 1009.7 |
| 20260506043226 | 41 | 0 | 0.0 | 0.0 | 0.00 | 0.00 | 0.00 | 80 | 1009.7 |
| 20260506043104 | 41 | 0 | 0.0 | 0.0 | 0.00 | 0.00 | 0.00 | 80 | 1009.7 |
| 20260506043004 | 41 | 0 | 0.0 | 0.0 | 0.00 | 0.00 | 0.00 | 80 | 1009.7 |
| 20260506042904 | 41 | 0 | 0.0 | 0.0 | 0.00 | 0.00 | 0.00 | 80 | 1009.7 |
| 20260506042804 | 41 | 0 | 0.0 | 0.0 | 0.00 | 0.00 | 0.00 | 80 | 1009.7 |
| 20260506042705 | 41 | 0 | 0.0 | 0.0 | 0.00 | 0.00 | 0.00 | 80 | 1009.7 |
| 20260506042604 | 41 | 0 | 0.0 | 0.0 | 0.00 | 0.00 | 0.00 | 80 | 1009.7 |
| 20260506042505 | 41 | 0 | 0.0 | 0.0 | 0.00 | 0.00 | 0.00 | 80 | 1009.7 |
| 20260506042404 | 41 | 0 | 0.0 | 0.0 | 0.00 | 0.00 | 0.00 | 80 | 1009.7 |
| 20260506042305 | 41 | 0 | 0.0 | 0.0 | 0.00 | 0.00 | 0.00 | 79 | 1009.7 |
| 20260506042204 | 41 | 0 | 0.0 | 0.0 | 0.00 | 0.00 | 0.00 | 79 | 1009.7 |
| 20260506042104 | 41 | 0 | 0.0 | 0.0 | 0.00 | 0.00 | 0.00 | 79 | 1009.7 |
| 20260506042005 | 41 | 0 | 0.0 | 0.0 | 0.00 | 0.00 | 0.00 | 79 | 1009.7 |
| 20260506041925 | 41 | 0 | 0.0 | 0.0 | 0.00 | 0.00 | 0.00 | 79 | 1009.7 |
| 20260506041804 | 42 | 0 | 0.0 | 0.0 | 0.00 | 0.00 | 0.00 | 79 | 1009.7 |
| 20260506041725 | 42 | 0 | 0.0 | 0.0 | 0.00 | 0.00 | 0.00 | 79 | 1009.7 |
| 20260506041625 | 42 | 0 | 0.0 | 0.0 | 0.00 | 0.00 | 0.00 | 79 | 1009.8 |
| 20260506041505 | 42 | 0 | 0.0 | 0.0 | 0.00 | 0.00 | 0.00 | 79 | 1009.8 |
| 20260506041404 | 42 | 0 | 0.0 | 0.0 | 0.00 | 0.00 | 0.00 | 79 | 1009.8 |
| 20260506041305 | 42 | 0 | 0.0 | 0.0 | 0.00 | 0.00 | 0.00 | 78 | 1009.9 |
| 20260506041204 | 42 | 0 | 0.0 | 0.0 | 0.00 | 0.00 | 0.00 | 78 | 1009.9 |
| 20260506041104 | 42 | 0 | 0.0 | 0.0 | 0.00 | 0.00 | 0.00 | 78 | 1009.9 |
| 20260506041004 | 42 | 0 | 0.0 | 0.0 | 0.00 | 0.00 | 0.00 | 78 | 1009.9 |
| 20260506040904 | 42 | 0 | 0.0 | 0.0 | 0.00 | 0.00 | 0.00 | 78 | 1009.9 |
| 20260506040804 | 42 | 0 | 0.0 | 0.0 | 0.00 | 0.00 | 0.00 | 78 | 1009.9 |
| 20260506040705 | 42 | 0 | 0.0 | 0.0 | 0.00 | 0.00 | 0.00 | 78 | 1009.9 |
| 20260506040604 | 42 | 0 | 0.0 | 0.0 | 0.00 | 0.00 | 0.00 | 78 | 1009.9 |
| 20260506040504 | 42 | 0 | 0.0 | 0.0 | 0.00 | 0.00 | 0.00 | 78 | 1009.9 |
| 20260506040404 | 42 | 0 | 0.0 | 0.0 | 0.00 | 0.00 | 0.00 | 78 | 1009.9 |
| 20260506040304 | 42 | 0 | 0.0 | 0.0 | 0.00 | 0.00 | 0.00 | 78 | 1009.9 |
| 20260506040204 | 42 | 0 | 0.0 | 0.0 | 0.00 | 0.00 | 0.00 | 78 | 1009.9 |
| 20260506040104 | 42 | 0 | 0.0 | 0.0 | 0.00 | 0.00 | 0.00 | 77 | 1009.9 |
| 20260506040006 | 42 | 0 | 0.0 | 1.0 | 0.00 | 0.00 | 0.00 | 77 | 1009.9 |
| 20260506035905 | 42 | 0 | 0.0 | 1.0 | 0.00 | 0.00 | 0.00 | 77 | 1010.0 |
| 20260506035805 | 42 | 0 | 0.0 | 1.0 | 0.00 | 0.00 | 0.00 | 77 | 1009.9 |
| 20260506035704 | 42 | 0 | 0.0 | 1.0 | 0.00 | 0.00 | 0.00 | 77 | 1009.9 |
| 20260506035605 | 42 | 0 | 0.0 | 1.0 | 0.00 | 0.00 | 0.00 | 77 | 1009.9 |
| 20260506035504 | 42 | 0 | 0.0 | 1.0 | 0.00 | 0.00 | 0.00 | 77 | 1009.8 |
| 20260506035404 | 42 | 0 | 0.0 | 1.0 | 0.00 | 0.00 | 0.00 | 77 | 1009.8 |
| 20260506035306 | 42 | 0 | 0.0 | 1.0 | 0.00 | 0.00 | 0.00 | 77 | 1009.8 |
| 20260506035205 | 42 | 0 | 0.0 | 1.0 | 0.00 | 0.00 | 0.00 | 77 | 1009.8 |
| 20260506035104 | 42 | 0 | 0.0 | 1.0 | 0.00 | 0.00 | 0.00 | 77 | 1009.7 |
| 20260506035004 | 42 | 0 | 0.0 | 0.0 | 0.00 | 0.00 | 0.00 | 77 | 1009.7 |
| 20260506034904 | 42 | 0 | 0.0 | 0.0 | 0.00 | 0.00 | 0.00 | 77 | 1009.7 |
| 20260506034805 | 42 | 0 | 0.0 | 0.0 | 0.00 | 0.00 | 0.00 | 77 | 1009.5 |
| 20260506034704 | 42 | 0 | 0.0 | 0.0 | 0.00 | 0.00 | 0.00 | 77 | 1009.5 |
| 20260506034625 | 42 | 0 | 0.0 | 0.0 | 0.00 | 0.00 | 0.00 | 76 | 1009.5 |
| 20260506034525 | 42 | 0 | 0.0 | 0.0 | 0.00 | 0.00 | 0.00 | 76 | 1009.5 |
| 20260506034404 | 42 | 0 | 0.0 | 0.0 | 0.00 | 0.00 | 0.00 | 76 | 1009.6 |
| 20260506034304 | 42 | 0 | 0.0 | 0.0 | 0.00 | 0.00 | 0.00 | 76 | 1009.6 |
| 20260506034205 | 42 | 0 | 0.0 | 0.0 | 0.00 | 0.00 | 0.00 | 76 | 1009.6 |
| 20260506034104 | 42 | 0 | 0.0 | 0.0 | 0.00 | 0.00 | 0.00 | 76 | 1009.6 |
| 20260506034004 | 42 | 0 | 0.0 | 0.0 | 0.00 | 0.00 | 0.00 | 76 | 1009.5 |
| 20260506033904 | 42 | 0 | 0.0 | 0.0 | 0.00 | 0.00 | 0.00 | 76 | 1009.5 |
| 20260506033804 | 42 | 0 | 0.0 | 0.0 | 0.00 | 0.00 | 0.00 | 76 | 1009.5 |
| 20260506033704 | 42 | 0 | 0.0 | 0.0 | 0.00 | 0.00 | 0.00 | 76 | 1009.6 |
| 20260506033625 | 42 | 0 | 0.0 | 0.0 | 0.00 | 0.00 | 0.00 | 75 | 1009.6 |
| 20260506033504 | 42 | 0 | 0.0 | 0.0 | 0.00 | 0.00 | 0.00 | 75 | 1009.6 |
| 20260506033404 | 42 | 0 | 0.0 | 0.0 | 0.00 | 0.00 | 0.00 | 75 | 1009.6 |
| 20260506033305 | 42 | 0 | 0.0 | 0.0 | 0.00 | 0.00 | 0.00 | 75 | 1009.6 |
| 20260506033204 | 42 | 0 | 0.0 | 0.0 | 0.00 | 0.00 | 0.00 | 75 | 1009.6 |
| 20260506033125 | 42 | 0 | 0.0 | 0.0 | 0.00 | 0.00 | 0.00 | 75 | 1009.6 |
| 20260506033005 | 42 | 0 | 0.0 | 0.0 | 0.00 | 0.00 | 0.00 | 75 | 1009.6 |
| 20260506032925 | 42 | 0 | 0.0 | 0.0 | 0.00 | 0.00 | 0.00 | 75 | 1009.6 |
| 20260506032805 | 42 | 0 | 0.0 | 0.0 | 0.00 | 0.00 | 0.00 | 74 | 1009.6 |
| 20260506032704 | 42 | 0 | 0.0 | 0.0 | 0.00 | 0.00 | 0.00 | 74 | 1009.7 |
| 20260506032604 | 42 | 0 | 0.0 | 0.0 | 0.00 | 0.00 | 0.00 | 74 | 1009.7 |
| 20260506032525 | 43 | 0 | 0.0 | 0.0 | 0.00 | 0.00 | 0.00 | 74 | 1009.7 |
| 20260506032404 | 43 | 0 | 0.0 | 0.0 | 0.00 | 0.00 | 0.00 | 74 | 1009.7 |
| 20260506032325 | 43 | 0 | 0.0 | 0.0 | 0.00 | 0.00 | 0.00 | 73 | 1009.7 |
| 20260506032204 | 43 | 0 | 0.0 | 0.0 | 0.00 | 0.00 | 0.00 | 73 | 1009.8 |
| 20260506032104 | 43 | 0 | 0.0 | 1.0 | 0.00 | 0.00 | 0.00 | 73 | 1009.8 |
| 20260506032004 | 43 | 0 | 0.0 | 1.0 | 0.00 | 0.00 | 0.00 | 73 | 1009.8 |
| 20260506031904 | 43 | 0 | 0.0 | 1.0 | 0.00 | 0.00 | 0.00 | 74 | 1009.8 |
| 20260506031804 | 43 | 0 | 0.0 | 1.0 | 0.00 | 0.00 | 0.00 | 74 | 1009.8 |
| 20260506031705 | 43 | 0 | 0.0 | 1.0 | 0.00 | 0.00 | 0.00 | 74 | 1009.8 |
| 20260506031604 | 43 | 0 | 0.0 | 1.0 | 0.00 | 0.00 | 0.00 | 74 | 1009.8 |
| 20260506031504 | 43 | 0 | 0.0 | 1.0 | 0.00 | 0.00 | 0.00 | 74 | 1009.7 |
| 20260506031404 | 43 | 0 | 0.0 | 1.0 | 0.00 | 0.00 | 0.00 | 74 | 1009.7 |
| 20260506031304 | 43 | 0 | 0.0 | 1.0 | 0.00 | 0.00 | 0.00 | 74 | 1009.7 |
| 20260506031204 | 42 | 0 | 0.0 | 1.0 | 0.00 | 0.00 | 0.00 | 74 | 1009.8 |
| 20260506031104 | 42 | 0 | 0.0 | 0.0 | 0.00 | 0.00 | 0.00 | 73 | 1009.8 |
| 20260506031004 | 43 | 0 | 0.0 | 0.0 | 0.00 | 0.00 | 0.00 | 73 | 1009.9 |
| 20260506030904 | 42 | 0 | 0.0 | 0.0 | 0.00 | 0.00 | 0.00 | 73 | 1009.9 |
| 20260506030825 | 43 | 0 | 0.0 | 0.0 | 0.00 | 0.00 | 0.00 | 73 | 1009.9 |
| 20260506030726 | 43 | 0 | 0.0 | 0.0 | 0.00 | 0.00 | 0.00 | 73 | 1009.9 |
| 20260506030604 | 43 | 0 | 0.0 | 0.0 | 0.00 | 0.00 | 0.00 | 73 | 1009.9 |
| 20260506030505 | 43 | 0 | 0.0 | 0.0 | 0.00 | 0.00 | 0.00 | 73 | 1009.9 |
| 20260506030404 | 43 | 0 | 0.0 | 0.0 | 0.00 | 0.00 | 0.00 | 73 | 1009.9 |
| 20260506030304 | 42 | 0 | 0.0 | 0.0 | 0.00 | 0.00 | 0.00 | 73 | 1009.9 |
| 20260506030204 | 42 | 0 | 0.0 | 0.0 | 0.00 | 0.00 | 0.00 | 73 | 1009.9 |
| 20260506030104 | 42 | 0 | 0.0 | 0.0 | 0.00 | 0.00 | 0.00 | 72 | 1009.8 |
| 20260506030005 | 42 | 0 | 0.0 | 0.0 | 0.00 | 0.00 | 0.00 | 72 | 1009.8 |
| 20260506025904 | 42 | 0 | 0.0 | 0.0 | 0.00 | 0.00 | 0.00 | 72 | 1009.6 |
| 20260506025804 | 42 | 0 | 0.0 | 0.0 | 0.00 | 0.00 | 0.00 | 71 | 1009.6 |
| 20260506025704 | 42 | 0 | 0.0 | 0.0 | 0.00 | 0.00 | 0.00 | 71 | 1009.5 |
| 20260506025604 | 42 | 0 | 0.0 | 0.0 | 0.00 | 0.00 | 0.00 | 71 | 1009.5 |
| 20260506025504 | 43 | 0 | 0.0 | 0.0 | 0.00 | 0.00 | 0.00 | 71 | 1009.5 |
| 20260506025405 | 43 | 0 | 0.0 | 0.0 | 0.00 | 0.00 | 0.00 | 71 | 1009.5 |
| 20260506025325 | 43 | 0 | 0.0 | 0.0 | 0.00 | 0.00 | 0.00 | 71 | 1009.5 |
| 20260506025204 | 43 | 0 | 0.0 | 0.0 | 0.00 | 0.00 | 0.00 | 71 | 1009.5 |
| 20260506025125 | 43 | 0 | 0.0 | 0.0 | 0.00 | 0.00 | 0.00 | 71 | 1009.5 |
| 20260506025004 | 43 | 0 | 0.0 | 0.0 | 0.00 | 0.00 | 0.00 | 70 | 1009.5 |
| 20260506024905 | 43 | 0 | 0.0 | 0.0 | 0.00 | 0.00 | 0.00 | 70 | 1009.5 |
| 20260506024804 | 43 | 0 | 0.0 | 0.0 | 0.00 | 0.00 | 0.00 | 70 | 1009.5 |
| 20260506024704 | 43 | 0 | 0.0 | 0.0 | 0.00 | 0.00 | 0.00 | 70 | 1009.5 |
| 20260506024604 | 43 | 0 | 0.0 | 0.0 | 0.00 | 0.00 | 0.00 | 69 | 1009.5 |
| 20260506024525 | 43 | 0 | 0.0 | 0.0 | 0.00 | 0.00 | 0.00 | 69 | 1009.5 |
| 20260506024404 | 43 | 0 | 0.0 | 0.0 | 0.00 | 0.00 | 0.00 | 69 | 1009.4 |
| 20260506024304 | 43 | 0 | 0.0 | 0.0 | 0.00 | 0.00 | 0.00 | 69 | 1009.3 |
| 20260506024204 | 43 | 0 | 0.0 | 0.0 | 0.00 | 0.00 | 0.00 | 69 | 1009.3 |
| 20260506024105 | 43 | 0 | 0.0 | 0.0 | 0.00 | 0.00 | 0.00 | 69 | 1009.3 |
| 20260506024004 | 43 | 0 | 0.0 | 0.0 | 0.00 | 0.00 | 0.00 | 69 | 1009.3 |
| 20260506023905 | 43 | 0 | 0.0 | 0.0 | 0.00 | 0.00 | 0.00 | 69 | 1009.4 |
| 20260506023825 | 43 | 0 | 0.0 | 0.0 | 0.00 | 0.00 | 0.00 | 69 | 1009.4 |
| 20260506023704 | 43 | 0 | 0.0 | 0.0 | 0.00 | 0.00 | 0.00 | 69 | 1009.4 |
| 20260506023604 | 43 | 0 | 0.0 | 0.0 | 0.00 | 0.00 | 0.00 | 69 | 1009.4 |
| 20260506023504 | 43 | 0 | 0.0 | 0.0 | 0.00 | 0.00 | 0.00 | 69 | 1009.4 |
| 20260506023404 | 43 | 0 | 0.0 | 0.0 | 0.00 | 0.00 | 0.00 | 69 | 1009.3 |
| 20260506023305 | 43 | 0 | 0.0 | 0.0 | 0.00 | 0.00 | 0.00 | 69 | 1009.2 |
| 20260506023204 | 43 | 0 | 0.0 | 0.0 | 0.00 | 0.00 | 0.00 | 70 | 1009.2 |
| 20260506023125 | 43 | 0 | 0.0 | 0.0 | 0.00 | 0.00 | 0.00 | 69 | 1009.2 |
| 20260506023025 | 43 | 0 | 0.0 | 0.0 | 0.00 | 0.00 | 0.00 | 69 | 1009.2 |
| 20260506022926 | 43 | 0 | 0.0 | 0.0 | 0.00 | 0.00 | 0.00 | 69 | 1009.2 |
| 20260506022804 | 43 | 0 | 0.0 | 0.0 | 0.00 | 0.00 | 0.00 | 69 | 1009.2 |
| 20260506022704 | 43 | 0 | 0.0 | 0.0 | 0.00 | 0.00 | 0.00 | 69 | 1009.2 |
| 20260506022604 | 43 | 0 | 0.0 | 0.0 | 0.00 | 0.00 | 0.00 | 69 | 1009.2 |
| 20260506022504 | 43 | 0 | 0.0 | 0.0 | 0.00 | 0.00 | 0.00 | 69 | 1009.1 |
| 20260506022425 | 43 | 0 | 0.0 | 0.0 | 0.00 | 0.00 | 0.00 | 70 | 1009.1 |
| 20260506022306 | 43 | 0 | 0.0 | 0.0 | 0.00 | 0.00 | 0.00 | 70 | 1009.1 |
| 20260506022225 | 43 | 0 | 0.0 | 0.0 | 0.00 | 0.00 | 0.00 | 70 | 1009.1 |
| 20260506022104 | 43 | 0 | 0.0 | 0.0 | 0.00 | 0.00 | 0.00 | 69 | 1009.0 |
| 20260506022004 | 43 | 0 | 0.0 | 0.0 | 0.00 | 0.00 | 0.00 | 69 | 1009.0 |
| 20260506021904 | 43 | 0 | 0.0 | 0.0 | 0.00 | 0.00 | 0.00 | 69 | 1009.0 |
| 20260506021804 | 43 | 0 | 0.0 | 0.0 | 0.00 | 0.00 | 0.00 | 68 | 1008.9 |
| 20260506021725 | 43 | 0 | 0.0 | 0.0 | 0.00 | 0.00 | 0.00 | 68 | 1008.9 |
| 20260506021605 | 43 | 0 | 0.0 | 0.0 | 0.00 | 0.00 | 0.00 | 68 | 1008.9 |
| 20260506021525 | 43 | 0 | 0.0 | 0.0 | 0.00 | 0.00 | 0.00 | 68 | 1008.9 |
| 20260506021425 | 43 | 0 | 0.0 | 0.0 | 0.00 | 0.00 | 0.00 | 68 | 1008.8 |
| 20260506021304 | 43 | 0 | 0.0 | 0.0 | 0.00 | 0.00 | 0.00 | 67 | 1008.8 |
| 20260506021204 | 43 | 0 | 0.0 | 0.0 | 0.00 | 0.00 | 0.00 | 67 | 1008.8 |
| 20260506021125 | 43 | 0 | 0.0 | 0.0 | 0.00 | 0.00 | 0.00 | 67 | 1008.8 |
| 20260506021004 | 43 | 0 | 0.0 | 0.0 | 0.00 | 0.00 | 0.00 | 67 | 1008.8 |
| 20260506020904 | 43 | 0 | 0.0 | 0.0 | 0.00 | 0.00 | 0.00 | 66 | 1008.8 |
| 20260506020825 | 43 | 0 | 0.0 | 0.0 | 0.00 | 0.00 | 0.00 | 67 | 1008.9 |
| 20260506020705 | 44 | 0 | 0.0 | 0.0 | 0.00 | 0.00 | 0.00 | 66 | 1008.8 |
| 20260506020604 | 44 | 0 | 0.0 | 0.0 | 0.00 | 0.00 | 0.00 | 66 | 1008.8 |
| 20260506020504 | 44 | 0 | 0.0 | 0.0 | 0.00 | 0.00 | 0.00 | 66 | 1008.8 |
| 20260506020404 | 44 | 0 | 0.0 | 0.0 | 0.00 | 0.00 | 0.00 | 66 | 1008.8 |
| 20260506020304 | 44 | 0 | 0.0 | 0.0 | 0.00 | 0.00 | 0.00 | 65 | 1008.8 |
| 20260506020204 | 44 | 0 | 0.0 | 0.0 | 0.00 | 0.00 | 0.00 | 65 | 1008.8 |
| 20260506020104 | 44 | 0 | 0.0 | 0.0 | 0.00 | 0.00 | 0.00 | 65 | 1008.8 |
| 20260506020025 | 44 | 0 | 0.0 | 0.0 | 0.00 | 0.00 | 0.00 | 65 | 1008.7 |
| 20260506015904 | 44 | 0 | 0.0 | 0.0 | 0.00 | 0.00 | 0.00 | 65 | 1008.7 |
| 20260506015804 | 44 | 0 | 0.0 | 0.0 | 0.00 | 0.00 | 0.00 | 65 | 1008.7 |
| 20260506015704 | 44 | 0 | 0.0 | 0.0 | 0.00 | 0.00 | 0.00 | 65 | 1008.7 |
| 20260506015604 | 44 | 0 | 0.0 | 0.0 | 0.00 | 0.00 | 0.00 | 65 | 1008.7 |
| 20260506015504 | 44 | 0 | 0.0 | 0.0 | 0.00 | 0.00 | 0.00 | 65 | 1008.6 |
| 20260506015404 | 44 | 0 | 0.0 | 0.0 | 0.00 | 0.00 | 0.00 | 64 | 1008.7 |
| 20260506015306 | 44 | 0 | 0.0 | 0.0 | 0.00 | 0.00 | 0.00 | 64 | 1008.7 |
| 20260506015204 | 45 | 0 | 0.0 | 0.0 | 0.00 | 0.00 | 0.00 | 64 | 1008.7 |
| 20260506015104 | 45 | 0 | 0.0 | 0.0 | 0.00 | 0.00 | 0.00 | 64 | 1008.7 |
| 20260506015004 | 45 | 0 | 0.0 | 0.0 | 0.00 | 0.00 | 0.00 | 63 | 1008.6 |
| 20260506014904 | 45 | 0 | 0.0 | 0.0 | 0.00 | 0.00 | 0.00 | 63 | 1008.6 |
| 20260506014825 | 45 | 0 | 0.0 | 0.0 | 0.00 | 0.00 | 0.00 | 63 | 1008.6 |
| 20260506014704 | 45 | 0 | 0.0 | 0.0 | 0.00 | 0.00 | 0.00 | 63 | 1008.6 |
| 20260506014625 | 45 | 0 | 0.0 | 0.0 | 0.00 | 0.00 | 0.00 | 63 | 1008.6 |
| 20260506014504 | 46 | 0 | 0.0 | 0.0 | 0.00 | 0.00 | 0.00 | 62 | 1008.7 |
| 20260506014404 | 46 | 0 | 0.0 | 0.0 | 0.00 | 0.00 | 0.00 | 61 | 1008.7 |
| 20260506014304 | 46 | 0 | 0.0 | 0.0 | 0.00 | 0.00 | 0.00 | 61 | 1008.7 |
| 20260506014225 | 46 | 0 | 0.0 | 0.0 | 0.00 | 0.00 | 0.00 | 61 | 1008.6 |
| 20260506014104 | 46 | 0 | 0.0 | 0.0 | 0.00 | 0.00 | 0.00 | 61 | 1008.6 |
| 20260506014025 | 46 | 0 | 0.0 | 0.0 | 0.00 | 0.00 | 0.00 | 61 | 1008.6 |
| 20260506013904 | 46 | 0 | 0.0 | 0.0 | 0.00 | 0.00 | 0.00 | 61 | 1008.5 |
| 20260506013804 | 46 | 0 | 0.0 | 0.0 | 0.00 | 0.00 | 0.00 | 61 | 1008.5 |
| 20260506013725 | 46 | 0 | 0.0 | 0.0 | 0.00 | 0.00 | 0.00 | 60 | 1008.5 |
| 20260506013604 | 46 | 0 | 0.0 | 0.0 | 0.00 | 0.00 | 0.00 | 60 | 1008.5 |
| 20260506013525 | 46 | 0 | 0.0 | 0.0 | 0.00 | 0.00 | 0.00 | 60 | 1008.5 |
| 20260506013404 | 46 | 0 | 0.0 | 0.0 | 0.00 | 0.00 | 0.00 | 60 | 1008.5 |
| 20260506013325 | 46 | 0 | 0.0 | 0.0 | 0.00 | 0.00 | 0.00 | 60 | 1008.5 |
| 20260506013204 | 46 | 0 | 0.0 | 0.0 | 0.00 | 0.00 | 0.00 | 60 | 1008.5 |
| 20260506013104 | 46 | 0 | 0.0 | 0.0 | 0.00 | 0.00 | 0.00 | 60 | 1008.5 |
| 20260506013004 | 46 | 0 | 0.0 | 0.0 | 0.00 | 0.00 | 0.00 | 59 | 1008.5 |
| 20260506012904 | 46 | 0 | 0.0 | 0.0 | 0.00 | 0.00 | 0.00 | 59 | 1008.4 |
| 20260506012804 | 46 | 0 | 0.0 | 0.0 | 0.00 | 0.00 | 0.00 | 59 | 1008.4 |
| 20260506012726 | 46 | 0 | 0.0 | 0.0 | 0.00 | 0.00 | 0.00 | 59 | 1008.4 |
| 20260506012604 | 46 | 0 | 0.0 | 0.0 | 0.00 | 0.00 | 0.00 | 59 | 1008.4 |
| 20260506012504 | 46 | 0 | 0.0 | 1.0 | 0.00 | 0.00 | 0.00 | 59 | 1008.4 |
| 20260506012404 | 46 | 0 | 0.0 | 1.0 | 0.00 | 0.00 | 0.00 | 59 | 1008.3 |
| 20260506012307 | 46 | 0 | 0.0 | 1.0 | 0.00 | 0.00 | 0.00 | 59 | 1008.3 |
| 20260506012225 | 46 | 0 | 0.0 | 1.0 | 0.00 | 0.00 | 0.00 | 58 | 1008.3 |
| 20260506012104 | 47 | 0 | 0.0 | 1.0 | 0.00 | 0.00 | 0.00 | 58 | 1008.3 |
| 20260506012004 | 47 | 0 | 0.0 | 1.0 | 0.00 | 0.00 | 0.00 | 58 | 1008.3 |
| 20260506011904 | 47 | 0 | 0.0 | 1.0 | 0.00 | 0.00 | 0.00 | 58 | 1008.3 |
| 20260506011804 | 47 | 0 | 0.0 | 1.0 | 0.00 | 0.00 | 0.00 | 58 | 1008.4 |
| 20260506011704 | 47 | 0 | 0.0 | 1.0 | 0.00 | 0.00 | 0.00 | 58 | 1008.4 |
| 20260506011604 | 47 | 0 | 0.0 | 1.0 | 0.00 | 0.00 | 0.00 | 58 | 1008.4 |
| 20260506011504 | 47 | 0 | 0.0 | 1.0 | 0.00 | 0.00 | 0.00 | 58 | 1008.4 |
| 20260506011404 | 47 | 0 | 0.0 | 1.0 | 0.00 | 0.00 | 0.00 | 57 | 1008.4 |
| 20260506011304 | 47 | 0 | 0.0 | 1.0 | 0.00 | 0.00 | 0.00 | 57 | 1008.4 |
| 20260506011204 | 47 | 0 | 0.0 | 1.0 | 0.00 | 0.00 | 0.00 | 58 | 1008.4 |
| 20260506011104 | 47 | 0 | 0.0 | 1.0 | 0.00 | 0.00 | 0.00 | 57 | 1008.5 |
| 20260506011004 | 47 | 0 | 0.0 | 1.0 | 0.00 | 0.00 | 0.00 | 57 | 1008.5 |
| 20260506010904 | 47 | 0 | 0.0 | 1.0 | 0.00 | 0.00 | 0.00 | 57 | 1008.5 |
| 20260506010805 | 47 | 0 | 0.0 | 1.0 | 0.00 | 0.00 | 0.00 | 57 | 1008.4 |
| 20260506010704 | 47 | 0 | 0.0 | 1.0 | 0.00 | 0.00 | 0.00 | 57 | 1008.4 |
| 20260506010604 | 47 | 0 | 0.0 | 1.0 | 0.00 | 0.00 | 0.00 | 57 | 1008.4 |
| 20260506010504 | 47 | 0 | 0.0 | 1.0 | 0.00 | 0.00 | 0.00 | 57 | 1008.4 |
| 20260506010404 | 47 | 0 | 0.0 | 1.0 | 0.00 | 0.00 | 0.00 | 57 | 1008.4 |
| 20260506010303 | 47 | 0 | 0.0 | 0.0 | 0.00 | 0.00 | 0.00 | 57 | 1008.4 |
| 20260506010204 | 47 | 0 | 0.0 | 2.0 | 0.00 | 0.00 | 0.00 | 56 | 1008.4 |
| 20260506010104 | 47 | 0 | 0.0 | 2.0 | 0.00 | 0.00 | 0.00 | 56 | 1008.4 |
| 20260506010025 | 47 | 0 | 0.0 | 2.0 | 0.00 | 0.00 | 0.00 | 56 | 1008.4 |
| 20260506005904 | 47 | 0 | 0.0 | 2.0 | 0.00 | 0.00 | 0.00 | 56 | 1008.4 |
| 20260506005804 | 48 | 0 | 0.0 | 2.0 | 0.00 | 0.00 | 0.00 | 56 | 1008.3 |
| 20260506005704 | 48 | 0 | 0.0 | 2.0 | 0.00 | 0.00 | 0.00 | 56 | 1008.3 |
| 20260506005604 | 48 | 0 | 0.0 | 2.0 | 0.00 | 0.00 | 0.00 | 56 | 1008.4 |
| 20260506005504 | 48 | 0 | 0.0 | 2.0 | 0.00 | 0.00 | 0.00 | 55 | 1008.4 |
| 20260506005404 | 48 | 0 | 0.0 | 2.0 | 0.00 | 0.00 | 0.00 | 55 | 1008.4 |
| 20260506005306 | 48 | 0 | 0.0 | 2.0 | 0.00 | 0.00 | 0.00 | 55 | 1008.4 |
| 20260506005204 | 48 | 0 | 0.0 | 2.0 | 0.00 | 0.00 | 0.00 | 55 | 1008.4 |
| 20260506005104 | 48 | 0 | 0.0 | 2.0 | 0.00 | 0.00 | 0.00 | 55 | 1008.4 |
| 20260506005025 | 48 | 0 | 0.0 | 2.0 | 0.00 | 0.00 | 0.00 | 54 | 1008.4 |
| 20260506004905 | 48 | 0 | 0.0 | 1.0 | 0.00 | 0.00 | 0.00 | 54 | 1008.4 |
| 20260506004804 | 48 | 0 | 0.0 | 1.0 | 0.00 | 0.00 | 0.00 | 54 | 1008.4 |
| 20260506004704 | 48 | 0 | 0.0 | 1.0 | 0.00 | 0.00 | 0.00 | 54 | 1008.3 |
| 20260506004604 | 48 | 0 | 0.0 | 1.0 | 0.00 | 0.00 | 0.00 | 54 | 1008.3 |
| 20260506004504 | 48 | 0 | 0.0 | 1.0 | 0.00 | 0.00 | 0.00 | 54 | 1008.4 |
| 20260506004404 | 48 | 0 | 0.0 | 1.0 | 0.00 | 0.00 | 0.00 | 54 | 1008.4 |
| 20260506004304 | 48 | 0 | 0.0 | 1.0 | 0.00 | 0.00 | 0.00 | 54 | 1008.4 |
| 20260506004204 | 48 | 0 | 0.0 | 1.0 | 0.00 | 0.00 | 0.00 | 54 | 1008.3 |
| 20260506004104 | 48 | 0 | 0.0 | 2.0 | 0.00 | 0.00 | 0.00 | 54 | 1008.3 |
| 20260506004025 | 48 | 0 | 0.0 | 2.0 | 0.00 | 0.00 | 0.00 | 54 | 1008.3 |
| 20260506003904 | 48 | 0 | 0.0 | 2.0 | 0.00 | 0.00 | 0.00 | 54 | 1008.3 |
| 20260506003804 | 48 | 0 | 0.0 | 2.0 | 0.00 | 0.00 | 0.00 | 53 | 1008.3 |
| 20260506003704 | 48 | 0 | 0.0 | 2.0 | 0.00 | 0.00 | 0.00 | 54 | 1008.3 |
| 20260506003604 | 48 | 0 | 0.0 | 2.0 | 0.00 | 0.00 | 0.00 | 53 | 1008.3 |
| 20260506003505 | 48 | 0 | 0.0 | 2.0 | 0.00 | 0.00 | 0.00 | 53 | 1008.3 |
| 20260506003404 | 48 | 279 | 1.0 | 3.0 | 0.00 | 0.00 | 0.00 | 53 | 1008.3 |
| 20260506003304 | 48 | 276 | 1.0 | 4.0 | 0.00 | 0.00 | 0.00 | 53 | 1008.3 |
| 20260506003204 | 48 | 276 | 1.0 | 4.0 | 0.00 | 0.00 | 0.00 | 53 | 1008.3 |
| 20260506003104 | 48 | 276 | 1.0 | 4.0 | 0.00 | 0.00 | 0.00 | 54 | 1008.3 |
| 20260506003004 | 48 | 276 | 1.0 | 4.0 | 0.00 | 0.00 | 0.00 | 53 | 1008.3 |
| 20260506002925 | 48 | 276 | 1.0 | 4.0 | 0.00 | 0.00 | 0.00 | 53 | 1008.3 |
| 20260506002804 | 48 | 274 | 1.0 | 4.0 | 0.00 | 0.00 | 0.00 | 53 | 1008.3 |
| 20260506002704 | 48 | 275 | 1.0 | 4.0 | 0.00 | 0.00 | 0.00 | 53 | 1008.3 |
| 20260506002604 | 49 | 269 | 1.0 | 4.0 | 0.00 | 0.00 | 0.00 | 52 | 1008.3 |
| 20260506002504 | 49 | 260 | 1.0 | 4.0 | 0.00 | 0.00 | 0.00 | 52 | 1008.3 |
| 20260506002404 | 49 | 257 | 1.0 | 4.0 | 0.00 | 0.00 | 0.00 | 52 | 1008.3 |
| 20260506002306 | 49 | 256 | 1.0 | 3.0 | 0.00 | 0.00 | 0.00 | 52 | 1008.3 |
| 20260506002225 | 49 | 256 | 1.0 | 3.0 | 0.00 | 0.00 | 0.00 | 52 | 1008.3 |
| 20260506002104 | 49 | 255 | 1.0 | 3.0 | 0.00 | 0.00 | 0.00 | 52 | 1008.3 |
| 20260506002004 | 49 | 254 | 1.0 | 3.0 | 0.00 | 0.00 | 0.00 | 52 | 1008.4 |
| 20260506001904 | 49 | 252 | 1.0 | 3.0 | 0.00 | 0.00 | 0.00 | 52 | 1008.3 |
| 20260506001804 | 49 | 250 | 1.0 | 4.0 | 0.00 | 0.00 | 0.00 | 51 | 1008.3 |
| 20260506001704 | 49 | 248 | 1.0 | 4.0 | 0.00 | 0.00 | 0.00 | 51 | 1008.3 |
| 20260506001604 | 49 | 248 | 1.0 | 4.0 | 0.00 | 0.00 | 0.00 | 51 | 1008.3 |
| 20260506001504 | 49 | 247 | 1.0 | 4.0 | 0.00 | 0.00 | 0.00 | 51 | 1008.3 |
| 20260506001403 | 49 | 246 | 1.0 | 4.0 | 0.00 | 0.00 | 0.00 | 51 | 1008.3 |
| 20260506001304 | 49 | 248 | 1.0 | 4.0 | 0.00 | 0.00 | 0.00 | 51 | 1008.3 |
| 20260506001204 | 49 | 247 | 1.0 | 5.0 | 0.00 | 0.00 | 0.00 | 50 | 1008.3 |
| 20260506001104 | 49 | 247 | 1.0 | 5.0 | 0.00 | 0.00 | 0.00 | 51 | 1008.3 |
| 20260506001004 | 49 | 247 | 1.0 | 5.0 | 0.00 | 0.00 | 0.00 | 50 | 1008.3 |
| 20260506000904 | 49 | 248 | 1.0 | 5.0 | 0.00 | 0.00 | 0.00 | 50 | 1008.3 |
| 20260506000805 | 49 | 247 | 1.0 | 5.0 | 0.00 | 0.00 | 0.00 | 50 | 1008.3 |
| 20260506000725 | 49 | 246 | 1.0 | 5.0 | 0.00 | 0.00 | 0.00 | 50 | 1008.3 |
| 20260506000604 | 49 | 246 | 1.0 | 5.0 | 0.00 | 0.00 | 0.00 | 49 | 1008.3 |
| 20260506000504 | 50 | 251 | 1.0 | 5.0 | 0.00 | 0.00 | 0.00 | 50 | 1008.3 |
| 20260506000404 | 50 | 250 | 1.0 | 5.0 | 0.00 | 0.00 | 0.00 | 50 | 1008.3 |
| 20260506000304 | 50 | 247 | 1.0 | 5.0 | 0.00 | 0.00 | 0.00 | 50 | 1008.3 |
| 20260506000205 | 50 | 247 | 1.0 | 4.0 | 0.00 | 0.00 | 0.00 | 51 | 1008.3 |
| 20260506000104 | 50 | 249 | 1.0 | 4.0 | 0.00 | 0.00 | 0.00 | 51 | 1008.3 |
| 20260506000004 | 50 | 252 | 1.0 | 4.0 | 0.00 | 0.00 | 0.00 | 50 | 1008.3 |
| 20260505235925 | 50 | 251 | 1.0 | 4.0 | 0.00 | 0.00 | 0.00 | 50 | 1008.3 |
| 20260505235804 | 50 | 255 | 1.0 | 4.0 | 0.00 | 0.00 | 0.00 | 50 | 1008.4 |
| 20260505235704 | 50 | 260 | 1.0 | 4.0 | 0.00 | 0.00 | 0.00 | 50 | 1008.4 |
| 20260505235604 | 50 | 256 | 1.0 | 7.0 | 0.00 | 0.00 | 0.00 | 50 | 1008.3 |
| 20260505235504 | 50 | 254 | 1.0 | 7.0 | 0.00 | 0.00 | 0.00 | 49 | 1008.3 |
| 20260505235404 | 50 | 255 | 1.0 | 7.0 | 0.00 | 0.00 | 0.00 | 50 | 1008.3 |
| 20260505235305 | 50 | 258 | 1.0 | 7.0 | 0.00 | 0.00 | 0.00 | 50 | 1008.4 |
| 20260505235204 | 50 | 258 | 1.0 | 7.0 | 0.00 | 0.00 | 0.00 | 50 | 1008.4 |
| 20260505235124 | 50 | 258 | 1.0 | 7.0 | 0.00 | 0.00 | 0.00 | 49 | 1008.2 |
| 20260505235004 | 50 | 254 | 2.0 | 7.0 | 0.00 | 0.00 | 0.00 | 49 | 1008.2 |
| 20260505234904 | 50 | 254 | 2.0 | 7.0 | 0.00 | 0.00 | 0.00 | 49 | 1008.2 |
| 20260505234804 | 50 | 252 | 1.0 | 7.0 | 0.00 | 0.00 | 0.00 | 49 | 1008.3 |
| 20260505234704 | 50 | 249 | 1.0 | 7.0 | 0.00 | 0.00 | 0.00 | 49 | 1008.3 |
| 20260505234604 | 50 | 248 | 1.0 | 5.0 | 0.00 | 0.00 | 0.00 | 50 | 1008.2 |
| 20260505234504 | 50 | 247 | 2.0 | 5.0 | 0.00 | 0.00 | 0.00 | 49 | 1008.2 |
| 20260505234404 | 50 | 247 | 2.0 | 5.0 | 0.00 | 0.00 | 0.00 | 49 | 1008.2 |
| 20260505234304 | 50 | 247 | 2.0 | 5.0 | 0.00 | 0.00 | 0.00 | 49 | 1008.3 |
| 20260505234204 | 50 | 249 | 2.0 | 5.0 | 0.00 | 0.00 | 0.00 | 49 | 1008.3 |
| 20260505234104 | 50 | 250 | 2.0 | 5.0 | 0.00 | 0.00 | 0.00 | 48 | 1008.3 |
| 20260505234004 | 50 | 252 | 2.0 | 5.0 | 0.00 | 0.00 | 0.00 | 48 | 1008.3 |
| 20260505233925 | 50 | 253 | 2.0 | 5.0 | 0.00 | 0.00 | 0.00 | 49 | 1008.3 |
| 20260505233804 | 50 | 254 | 2.0 | 5.0 | 0.00 | 0.00 | 0.00 | 48 | 1008.3 |
| 20260505233704 | 50 | 254 | 2.0 | 5.0 | 0.00 | 0.00 | 0.00 | 48 | 1008.3 |
| 20260505233604 | 50 | 255 | 2.0 | 5.0 | 0.00 | 0.00 | 0.00 | 48 | 1008.4 |
| 20260505233503 | 50 | 255 | 2.0 | 5.0 | 0.00 | 0.00 | 0.00 | 48 | 1008.3 |
| 20260505233404 | 50 | 255 | 2.0 | 5.0 | 0.00 | 0.00 | 0.00 | 49 | 1008.3 |
| 20260505233304 | 50 | 254 | 2.0 | 5.0 | 0.00 | 0.00 | 0.00 | 48 | 1008.3 |
| 20260505233204 | 51 | 252 | 2.0 | 5.0 | 0.00 | 0.00 | 0.00 | 48 | 1008.3 |
| 20260505233104 | 51 | 249 | 2.0 | 5.0 | 0.00 | 0.00 | 0.00 | 48 | 1008.1 |
| 20260505233025 | 51 | 248 | 2.0 | 4.0 | 0.00 | 0.00 | 0.00 | 48 | 1008.1 |
| 20260505232904 | 51 | 238 | 1.0 | 4.0 | 0.00 | 0.00 | 0.00 | 48 | 1008.0 |
| 20260505232804 | 51 | 230 | 1.0 | 4.0 | 0.00 | 0.00 | 0.00 | 47 | 1008.0 |
| 20260505232703 | 51 | 229 | 1.0 | 4.0 | 0.00 | 0.00 | 0.00 | 47 | 1008.0 |
| 20260505232604 | 51 | 224 | 1.0 | 4.0 | 0.00 | 0.00 | 0.00 | 47 | 1008.0 |
| 20260505232504 | 51 | 220 | 1.0 | 4.0 | 0.00 | 0.00 | 0.00 | 47 | 1008.1 |
| 20260505232404 | 51 | 215 | 1.0 | 4.0 | 0.00 | 0.00 | 0.00 | 47 | 1008.1 |
| 20260505232305 | 51 | 223 | 1.0 | 4.0 | 0.00 | 0.00 | 0.00 | 47 | 1008.0 |
| 20260505232204 | 51 | 219 | 1.0 | 4.0 | 0.00 | 0.00 | 0.00 | 47 | 1008.0 |
| 20260505232104 | 51 | 216 | 1.0 | 4.0 | 0.00 | 0.00 | 0.00 | 46 | 1008.0 |
| 20260505232025 | 51 | 207 | 1.0 | 5.0 | 0.00 | 0.00 | 0.00 | 46 | 1008.1 |
| 20260505231925 | 51 | 225 | 1.0 | 5.0 | 0.00 | 0.00 | 0.00 | 46 | 1008.1 |
| 20260505231804 | 51 | 227 | 2.0 | 5.0 | 0.00 | 0.00 | 0.00 | 47 | 1008.2 |
| 20260505231704 | 51 | 228 | 2.0 | 5.0 | 0.00 | 0.00 | 0.00 | 47 | 1008.1 |
| 20260505231603 | 51 | 233 | 2.0 | 5.0 | 0.00 | 0.00 | 0.00 | 46 | 1008.1 |
| 20260505231503 | 51 | 233 | 2.0 | 5.0 | 0.00 | 0.00 | 0.00 | 46 | 1008.1 |
| 20260505231404 | 51 | 239 | 2.0 | 5.0 | 0.00 | 0.00 | 0.00 | 46 | 1008.1 |
| 20260505231325 | 51 | 235 | 2.0 | 5.0 | 0.00 | 0.00 | 0.00 | 46 | 1008.2 |
| 20260505231204 | 51 | 231 | 2.0 | 7.0 | 0.00 | 0.00 | 0.00 | 46 | 1008.2 |
| 20260505231103 | 51 | 232 | 2.0 | 7.0 | 0.00 | 0.00 | 0.00 | 46 | 1008.2 |
| 20260505231025 | 51 | 237 | 2.0 | 7.0 | 0.00 | 0.00 | 0.00 | 45 | 1008.2 |
| 20260505230904 | 51 | 231 | 2.0 | 7.0 | 0.00 | 0.00 | 0.00 | 46 | 1008.2 |
| 20260505230804 | 51 | 232 | 2.0 | 7.0 | 0.00 | 0.00 | 0.00 | 45 | 1008.2 |
| 20260505230703 | 52 | 226 | 2.0 | 7.0 | 0.00 | 0.00 | 0.00 | 45 | 1008.2 |
| 20260505230604 | 52 | 222 | 2.0 | 7.0 | 0.00 | 0.00 | 0.00 | 46 | 1008.2 |
| 20260505230504 | 52 | 213 | 2.0 | 7.0 | 0.00 | 0.00 | 0.00 | 45 | 1008.1 |
| 20260505230403 | 52 | 208 | 2.0 | 7.0 | 0.00 | 0.00 | 0.00 | 45 | 1008.0 |
| 20260505230304 | 52 | 202 | 2.0 | 5.0 | 0.00 | 0.00 | 0.00 | 45 | 1008.0 |
| 20260505230204 | 52 | 206 | 2.0 | 6.0 | 0.00 | 0.00 | 0.00 | 46 | 1008.1 |
| 20260505230104 | 52 | 207 | 2.0 | 6.0 | 0.00 | 0.00 | 0.00 | 46 | 1008.1 |
| 20260505230025 | 52 | 207 | 2.0 | 6.0 | 0.00 | 0.00 | 0.00 | 46 | 1008.2 |
| 20260505225904 | 52 | 204 | 2.0 | 6.0 | 0.00 | 0.00 | 0.00 | 45 | 1008.1 |
| 20260505225804 | 52 | 205 | 2.0 | 6.0 | 0.00 | 0.00 | 0.00 | 45 | 1008.1 |
| 20260505225725 | 52 | 213 | 2.0 | 6.0 | 0.00 | 0.00 | 0.00 | 45 | 1008.1 |
| 20260505225603 | 52 | 220 | 2.0 | 6.0 | 0.00 | 0.00 | 0.00 | 45 | 1008.1 |
| 20260505225504 | 52 | 229 | 2.0 | 6.0 | 0.00 | 0.00 | 0.00 | 46 | 1008.1 |
| 20260505225404 | 52 | 235 | 2.0 | 6.0 | 0.00 | 0.00 | 0.00 | 46 | 1008.0 |
| 20260505225325 | 52 | 236 | 2.0 | 6.0 | 0.00 | 0.00 | 0.00 | 46 | 1008.0 |
| 20260505225204 | 52 | 233 | 2.0 | 6.0 | 0.00 | 0.00 | 0.00 | 46 | 1008.1 |
| 20260505225125 | 52 | 233 | 2.0 | 6.0 | 0.00 | 0.00 | 0.00 | 46 | 1008.1 |
| 20260505225004 | 52 | 236 | 2.0 | 6.0 | 0.00 | 0.00 | 0.00 | 46 | 1008.2 |
| 20260505224904 | 52 | 242 | 2.0 | 6.0 | 0.00 | 0.00 | 0.00 | 47 | 1008.1 |
| 20260505224804 | 52 | 243 | 2.0 | 6.0 | 0.00 | 0.00 | 0.00 | 47 | 1008.1 |
| 20260505224704 | 52 | 243 | 2.0 | 5.0 | 0.00 | 0.00 | 0.00 | 47 | 1008.0 |
| 20260505224604 | 52 | 241 | 2.0 | 5.0 | 0.00 | 0.00 | 0.00 | 46 | 1008.1 |
| 20260505224503 | 52 | 243 | 2.0 | 5.0 | 0.00 | 0.00 | 0.00 | 47 | 1008.1 |
| 20260505224404 | 52 | 241 | 2.0 | 5.0 | 0.00 | 0.00 | 0.00 | 47 | 1008.1 |
| 20260505224304 | 52 | 246 | 2.0 | 8.0 | 0.00 | 0.00 | 0.00 | 47 | 1008.1 |
| 20260505224225 | 52 | 251 | 2.0 | 8.0 | 0.00 | 0.00 | 0.00 | 48 | 1008.2 |
| 20260505224125 | 52 | 252 | 2.0 | 8.0 | 0.00 | 0.00 | 0.00 | 48 | 1008.2 |
| 20260505224024 | 51 | 251 | 2.0 | 8.0 | 0.00 | 0.00 | 0.00 | 47 | 1008.2 |
| 20260505223904 | 52 | 250 | 2.0 | 8.0 | 0.00 | 0.00 | 0.00 | 47 | 1008.2 |
| 20260505223804 | 52 | 249 | 2.0 | 8.0 | 0.00 | 0.00 | 0.00 | 47 | 1008.2 |
| 20260505223703 | 51 | 249 | 2.0 | 8.0 | 0.00 | 0.00 | 0.00 | 47 | 1008.2 |
| 20260505223604 | 51 | 246 | 2.0 | 8.0 | 0.00 | 0.00 | 0.00 | 46 | 1008.1 |
| 20260505223504 | 52 | 242 | 2.0 | 8.0 | 0.00 | 0.00 | 0.00 | 45 | 1008.1 |
| 20260505223404 | 52 | 241 | 2.0 | 8.0 | 0.00 | 0.00 | 0.00 | 45 | 1008.1 |
| 20260505223303 | 52 | 233 | 1.0 | 6.0 | 0.00 | 0.00 | 0.00 | 45 | 1008.1 |
| 20260505223204 | 52 | 227 | 1.0 | 6.0 | 0.00 | 0.00 | 0.00 | 45 | 1008.1 |
| 20260505223103 | 52 | 223 | 1.0 | 6.0 | 0.00 | 0.00 | 0.00 | 45 | 1008.0 |
| 20260505223003 | 52 | 236 | 1.0 | 6.0 | 0.00 | 0.00 | 0.00 | 46 | 1008.0 |
| 20260505222925 | 52 | 236 | 1.0 | 7.0 | 0.00 | 0.00 | 0.00 | 46 | 1008.0 |
| 20260505222804 | 52 | 241 | 2.0 | 7.0 | 0.00 | 0.00 | 0.00 | 46 | 1007.9 |
| 20260505222725 | 52 | 241 | 2.0 | 7.0 | 0.00 | 0.00 | 0.00 | 46 | 1007.9 |
| 20260505222603 | 52 | 245 | 2.0 | 7.0 | 0.00 | 0.00 | 0.00 | 46 | 1008.0 |
| 20260505222524 | 52 | 247 | 2.0 | 7.0 | 0.00 | 0.00 | 0.00 | 45 | 1008.0 |
| 20260505222404 | 52 | 251 | 2.0 | 7.0 | 0.00 | 0.00 | 0.00 | 46 | 1008.0 |
| 20260505222305 | 52 | 250 | 3.0 | 7.0 | 0.00 | 0.00 | 0.00 | 46 | 1008.0 |
| 20260505222203 | 51 | 252 | 3.0 | 7.0 | 0.00 | 0.00 | 0.00 | 45 | 1008.0 |
| 20260505222124 | 51 | 251 | 3.0 | 7.0 | 0.00 | 0.00 | 0.00 | 45 | 1008.0 |
| 20260505222004 | 52 | 248 | 3.0 | 7.0 | 0.00 | 0.00 | 0.00 | 45 | 1008.0 |
| 20260505221925 | 52 | 250 | 3.0 | 7.0 | 0.00 | 0.00 | 0.00 | 45 | 1008.0 |
| 20260505221803 | 52 | 249 | 3.0 | 6.0 | 0.00 | 0.00 | 0.00 | 46 | 1008.1 |
| 20260505221704 | 52 | 248 | 3.0 | 6.0 | 0.00 | 0.00 | 0.00 | 46 | 1008.1 |
| 20260505221604 | 52 | 248 | 3.0 | 8.0 | 0.00 | 0.00 | 0.00 | 46 | 1008.1 |
| 20260505221504 | 52 | 247 | 3.0 | 8.0 | 0.00 | 0.00 | 0.00 | 46 | 1008.0 |
| 20260505221404 | 52 | 244 | 3.0 | 8.0 | 0.00 | 0.00 | 0.00 | 45 | 1008.0 |
| 20260505221303 | 52 | 247 | 3.0 | 9.0 | 0.00 | 0.00 | 0.00 | 45 | 1008.0 |
| 20260505221203 | 52 | 244 | 3.0 | 9.0 | 0.00 | 0.00 | 0.00 | 46 | 1008.0 |
| 20260505221125 | 52 | 245 | 3.0 | 9.0 | 0.00 | 0.00 | 0.00 | 45 | 1007.9 |
| 20260505221004 | 52 | 240 | 3.0 | 9.0 | 0.00 | 0.00 | 0.00 | 45 | 1007.9 |
| 20260505220904 | 52 | 240 | 3.0 | 9.0 | 0.00 | 0.00 | 0.00 | 46 | 1007.9 |
| 20260505220804 | 52 | 241 | 4.0 | 9.0 | 0.00 | 0.00 | 0.00 | 46 | 1008.0 |
| 20260505220703 | 52 | 241 | 3.0 | 9.0 | 0.00 | 0.00 | 0.00 | 45 | 1008.0 |
| 20260505220625 | 51 | 238 | 3.0 | 9.0 | 0.00 | 0.00 | 0.00 | 45 | 1008.0 |
| 20260505220504 | 52 | 237 | 3.0 | 9.0 | 0.00 | 0.00 | 0.00 | 45 | 1008.0 |
| 20260505220425 | 52 | 237 | 3.0 | 9.0 | 0.00 | 0.00 | 0.00 | 45 | 1008.0 |
| 20260505220303 | 52 | 236 | 3.0 | 9.0 | 0.00 | 0.00 | 0.00 | 45 | 1008.0 |
| 20260505220203 | 52 | 234 | 3.0 | 9.0 | 0.00 | 0.00 | 0.00 | 45 | 1008.0 |
| 20260505220103 | 52 | 233 | 3.0 | 9.0 | 0.00 | 0.00 | 0.00 | 45 | 1007.9 |
| 20260505220004 | 51 | 240 | 3.0 | 9.0 | 0.00 | 0.00 | 0.00 | 45 | 1008.0 |
| 20260505215904 | 52 | 242 | 3.0 | 9.0 | 0.00 | 0.00 | 0.00 | 45 | 1008.0 |